YYYY MM/DD hh:mm	Temp	Humid	W_dir	W_spd	Barom	T_int	Light	Power	Temp2	P2	Snow	T_mid	T_base	Precip
Year Date  Time 	(F)	(%)	(Deg)	(MPH)	("Hg)	(F)	/1000	(V)	(F)	-	(")	(F)	(F)	(")
2017 06/21 00:00	47.1	100.0	311.2	12.8	30.42	65.6	-0.3	13.02	-40.0	0	0.4	46.1	53.2	0	1	0	0	0	68.2	61.1	0.0
2017 06/21 00:15	47.2	100.1	308.2	14.2	30.42	65.5	0.0	12.99	-39.9	0	0.5	46.1	52.8	0	1	0	0	0	67.8	60.9	0.0
2017 06/21 00:30	46.5	100.1	269.8	16.5	30.41	65.3	0.0	12.99	-40.0	0	0.6	45.2	52.3	0	1	0	0	0	67.3	60.6	0.0
2017 06/21 00:45	46.2	100.1	305.8	15.8	30.41	65.1	0.0	13.01	-40.0	0	0.6	44.3	52.2	0	1	0	0	0	66.8	60.5	0.0
2017 06/21 01:00	46.3	96.1	284.5	14.9	30.40	64.9	0.0	12.99	-40.0	0	0.6	44.3	52.1	0	1	0	0	0	66.5	60.3	0.0
2017 06/21 01:15	46.2	95.0	291.2	16.2	30.40	64.7	0.0	12.99	-40.0	0	0.3	44.3	52.1	0	1	0	0	0	66.1	60.1	0.0
2017 06/21 01:30	46.2	96.2	300.7	13.2	30.40	64.4	0.0	13.03	-39.9	0	0.5	44.3	51.7	0	1	0	0	0	65.7	59.9	0.0
2017 06/21 01:45	45.9	96.4	303.8	15.8	30.39	64.2	-0.3	13.00	-40.0	0	0.5	43.4	51.6	0	1	0	0	0	65.3	59.6	0.0
2017 06/21 02:00	46.0	95.6	291.1	16.1	30.39	64.0	-0.3	13.01	-40.0	0	0.6	43.4	51.2	0	1	0	0	0	64.8	59.4	0.0
2017 06/21 02:15	45.6	99.0	289.9	15.7	30.38	63.8	0.0	13.01	-40.1	0	0.6	43.4	51.4	0	1	0	0	0	64.5	59.3	0.0
2017 06/21 02:30	45.1	97.9	314.9	17.8	30.38	63.5	0.0	13.01	-39.9	0	0.5	43.4	50.7	0	1	0	0	0	64.1	59.1	0.0
2017 06/21 02:45	44.9	97.4	307.3	17.4	30.38	63.3	-0.3	13.01	-39.9	0	0.5	43.4	50.4	0	1	0	0	0	63.8	58.8	0.0
2017 06/21 03:00	44.4	94.6	299.5	14.4	30.37	63.1	0.0	12.99	-40.0	0	0.6	42.5	50.4	0	1	0	0	0	63.5	58.6	0.0
2017 06/21 03:15	43.8	97.6	288.9	15.2	30.37	62.9	0.0	13.01	-40.0	0	0.6	42.5	49.9	0	1	0	0	0	63.2	58.4	0.0
2017 06/21 03:30	44.0	96.3	299.9	19.2	30.36	62.5	0.0	12.98	-40.0	0	0.7	41.6	49.7	0	1	0	0	0	62.9	58.2	0.0
2017 06/21 03:45	43.7	95.5	300.1	20.0	30.36	62.4	0.0	13.01	-40.0	0	0.5	41.6	49.4	0	1	0	0	0	62.5	58.0	0.0
2017 06/21 04:00	44.9	72.3	307.4	22.2	30.36	62.0	0.0	12.99	-39.9	0	0.5	40.7	48.6	0	1	0	0	0	62.2	57.7	0.0
2017 06/21 04:15	45.4	57.0	306.5	20.8	30.35	61.8	0.0	12.99	-40.1	0	0.6	39.8	47.2	0	1	0	0	0	62.0	57.6	0.0
2017 06/21 04:30	45.3	68.6	311.5	16.9	30.36	61.5	0.3	12.99	-40.0	0	0.4	39.8	47.6	0	1	0	0	0	61.7	57.4	0.0
2017 06/21 04:45	45.4	60.0	321.3	14.1	30.36	61.2	3.7	12.99	-40.0	0	0.4	40.7	48.0	0	1	0	0	0	61.3	57.0	0.0
2017 06/21 05:00	44.9	52.5	308.6	12.1	30.36	60.9	31.9	13.01	-40.0	0	0.6	39.8	48.9	0	1	0	0	0	61.0	56.8	0.0
2017 06/21 05:15	45.5	46.3	335.9	13.8	30.35	60.6	196.4	12.99	-39.9	0	0.4	40.7	48.3	0	1	0	0	0	60.6	56.6	0.0
2017 06/21 05:30	47.8	26.7	332.0	13.3	30.35	60.4	436.0	13.01	-40.0	0	-0.0	42.5	48.9	0	1	0	0	0	60.3	56.2	0.0
2017 06/21 05:45	48.5	15.6	329.4	16.8	30.35	60.0	606.3	12.99	-39.9	0	0.4	40.7	49.6	0	1	0	0	0	60.0	56.0	0.0
2017 06/21 06:00	48.4	17.4	330.4	19.3	30.35	59.7	673.8	12.98	-39.9	0	0.1	43.4	50.1	0	1	0	0	0	59.5	55.7	0.0
2017 06/21 06:15	48.5	17.8	320.6	18.6	30.35	59.5	715.0	13.02	-40.0	0	0.5	43.4	50.1	0	1	0	0	0	59.3	55.5	0.0
2017 06/21 06:30	48.4	20.6	327.8	16.7	30.35	59.1	754.0	13.01	-39.9	0	-0.0	44.3	50.8	0	1	0	0	0	59.1	55.4	0.0
2017 06/21 06:45	48.3	17.6	329.5	16.1	30.34	58.9	782.0	13.02	-39.9	0	-0.1	46.1	51.3	0	1	0	0	0	58.8	55.1	0.0
2017 06/21 07:00	48.2	24.4	345.6	13.9	30.34	58.6	799.0	12.99	-40.0	0	-0.2	48.8	51.5	0	1	0	0	0	58.4	54.9	0.0
2017 06/21 07:15	49.5	20.8	330.5	11.3	30.34	58.2	797.0	13.01	-40.1	0	-0.1	49.7	50.2	0	1	0	0	0	58.3	54.9	0.0
2017 06/21 07:30	48.7	22.1	351.3	11.2	30.34	58.0	790.0	13.00	-40.0	0	-0.1	48.8	50.6	0	1	0	0	0	58.3	54.9	0.0
2017 06/21 07:45	49.6	22.0	335.4	10.8	30.34	57.8	805.0	13.00	-40.1	0	-0.2	50.6	51.0	0	1	0	0	0	58.3	54.8	0.0
2017 06/21 08:00	49.5	19.8	359.2	10.4	30.34	57.6	801.0	13.01	-40.0	0	-0.2	52.4	53.8	0	1	0	0	0	58.4	54.8	0.0
2017 06/21 08:15	50.0	19.9	343.9	15.7	30.35	57.4	812.0	12.99	-39.9	0	-0.4	53.3	54.0	0	1	0	0	0	58.5	54.7	0.0
2017 06/21 08:30	51.2	20.4	23.6	12.4	30.35	57.1	817.0	12.99	-39.9	0	0.0	53.3	55.6	0	1	0	0	0	58.7	54.7	0.0
2017 06/21 08:45	51.2	17.0	353.6	10.5	30.35	56.9	820.0	12.99	-40.0	0	0.2	54.2	55.9	0	1	0	0	0	59.0	54.8	0.0
2017 06/21 09:00	52.2	25.5	348.6	10.9	30.35	56.8	827.0	13.01	-40.1	0	0.5	54.2	56.8	0	1	0	0	0	59.2	54.8	0.0
2017 06/21 09:15	53.1	32.1	327.6	7.3	30.35	56.7	828.0	13.01	-40.0	0	-0.0	54.2	57.0	0	1	0	0	0	59.4	54.9	0.0
2017 06/21 09:30	53.2	35.1	342.0	9.2	30.35	56.5	829.0	13.01	-40.0	0	0.3	56.0	58.7	0	1	0	0	0	59.7	55.0	0.0
2017 06/21 09:45	53.0	52.9	303.2	5.5	30.35	56.5	824.0	13.03	-40.0	0	0.4	54.2	58.7	0	1	0	0	0	60.3	55.4	0.0
2017 06/21 10:00	52.1	49.4	267.4	6.2	30.35	56.5	836.0	13.01	-40.0	0	0.6	54.2	59.8	0	1	0	0	0	61.2	55.6	0.0
2017 06/21 10:15	52.0	51.0	274.4	5.9	30.35	56.5	839.0	13.03	-40.0	0	0.6	55.1	60.9	0	1	0	0	0	61.8	55.8	0.0
2017 06/21 10:30	54.2	40.6	306.9	6.2	30.35	56.5	837.0	13.01	-40.0	0	0.5	56.0	61.4	0	1	0	0	0	62.7	56.2	0.0
2017 06/21 10:45	55.4	30.9	333.5	8.6	30.35	56.5	838.0	13.01	-40.0	0	0.7	57.8	61.9	0	1	0	0	0	63.9	56.6	0.0
2017 06/21 11:00	55.5	32.6	312.3	12.6	30.36	56.5	840.0	13.01	-40.0	0	0.7	58.7	63.1	0	1	0	0	0	65.3	57.3	0.0
2017 06/21 11:15	56.7	32.5	297.3	6.2	30.36	56.5	839.0	12.99	-40.0	0	0.6	59.6	63.8	0	1	0	0	0	66.1	57.7	0.0
2017 06/21 11:30	58.6	20.9	301.3	14.0	30.37	56.6	841.0	13.01	-40.0	0	0.8	58.7	65.1	0	1	0	0	0	67.6	58.5	0.0
2017 06/21 11:45	56.7	24.9	312.4	14.9	30.37	56.7	842.0	13.01	-40.0	0	0.3	62.3	65.5	0	1	0	0	0	69.1	59.1	0.0
2017 06/21 12:00	56.7	27.2	310.2	11.1	30.37	56.7	843.0	13.01	-40.0	0	1.0	61.4	65.4	0	1	0	0	0	70.6	59.6	0.0
2017 06/21 12:15	58.2	26.8	276.4	10.8	30.37	56.9	843.0	13.00	-40.0	0	0.0	62.3	66.3	0	1	0	0	0	71.7	60.3	0.0
2017 06/21 12:30	58.8	21.5	318.4	13.7	30.37	56.9	843.0	12.99	-40.0	0	0.6	63.2	66.1	0	1	0	0	0	72.7	60.9	0.0
2017 06/21 12:45	59.7	17.6	307.4	16.0	30.37	57.1	843.0	13.02	-40.0	0	1.2	62.3	66.9	0	1	0	0	0	73.8	61.3	0.0
2017 06/21 13:00	58.2	18.3	323.0	15.3	30.37	57.1	845.0	12.99	-40.1	0	0.6	64.1	68.2	0	1	0	0	0	74.6	61.7	0.0
2017 06/21 13:15	61.0	26.0	314.3	8.9	30.37	57.4	847.0	12.99	-40.0	0	0.7	64.1	67.9	0	1	0	0	0	75.1	62.0	0.0
2017 06/21 13:30	58.2	22.8	330.3	12.0	30.37	57.4	847.0	13.00	-40.0	0	0.6	63.2	67.9	0	1	0	0	0	75.7	62.4	0.0
2017 06/21 13:45	59.7	20.3	309.8	18.7	30.37	57.6	846.0	13.01	-40.0	0	0.9	64.1	67.7	0	1	0	0	0	76.4	62.8	0.0
2017 06/21 14:00	59.5	20.6	299.3	17.4	30.37	57.6	850.0	12.99	-40.1	0	0.4	65.0	70.0	0	1	0	0	0	76.8	62.8	0.0
2017 06/21 14:15	59.7	24.4	332.6	14.7	30.37	57.8	852.0	12.99	-39.9	0	0.7	63.2	68.5	0	1	0	0	0	77.0	62.8	0.0
2017 06/21 14:30	61.6	28.3	291.4	14.2	30.37	58.0	858.0	12.99	-40.0	0	0.7	62.3	68.7	0	1	0	0	0	77.2	62.8	0.0
2017 06/21 14:45	59.7	27.6	326.3	14.4	30.37	58.0	854.0	12.99	-39.9	0	0.8	63.2	69.7	0	1	0	0	0	77.3	62.7	0.0
2017 06/21 15:00	60.0	27.1	325.3	14.1	30.37	58.2	846.0	12.98	-39.9	0	0.8	64.1	68.5	0	1	0	0	0	77.5	62.7	0.0
2017 06/21 15:15	60.9	29.1	291.3	11.1	30.38	58.4	864.0	12.99	-39.9	0	0.6	63.2	69.0	0	1	0	0	0	77.9	62.5	0.0
2017 06/21 15:30	61.3	32.2	325.4	6.8	30.38	58.4	874.0	12.99	-40.0	0	0.5	65.0	69.6	0	1	0	0	0	78.0	62.5	0.0
2017 06/21 15:45	62.5	28.9	265.4	10.0	30.37	58.6	859.0	12.99	-40.0	0	0.8	63.2	69.3	0	1	0	0	0	78.3	62.8	0.0
2017 06/21 16:00	60.9	36.4	312.5	14.8	30.38	58.9	860.0	13.00	-40.1	0	0.6	63.2	68.4	0	1	0	0	0	78.6	62.8	0.0
2017 06/21 16:15	61.1	36.6	314.4	12.6	30.37	59.1	852.0	13.01	-40.0	0	-0.1	64.1	69.0	0	1	0	0	0	78.8	62.9	0.0
2017 06/21 16:30	60.8	37.1	304.8	14.2	30.38	59.3	847.0	12.99	-40.0	0	0.4	63.2	69.5	0	1	0	0	0	78.8	63.1	0.0
2017 06/21 16:45	62.1	31.1	276.2	11.1	30.38	59.5	847.0	13.01	-40.1	0	0.2	62.3	69.3	0	1	0	0	0	79.0	63.2	0.0
2017 06/21 17:00	61.4	32.4	307.9	12.9	30.38	59.7	853.0	13.00	-40.0	0	0.6	62.3	69.7	0	1	0	0	0	79.5	63.2	0.0
2017 06/21 17:15	60.4	33.0	316.0	14.2	30.38	59.9	923.0	13.02	-40.0	0	0.6	63.2	69.7	0	1	0	0	0	79.6	63.2	0.0
2017 06/21 17:30	59.3	37.9	303.0	18.5	30.38	60.1	949.0	13.00	-40.0	0	0.6	62.3	68.8	0	1	0	0	0	80.1	63.2	0.0
2017 06/21 17:45	60.6	35.8	286.5	13.8	30.38	60.3	961.0	13.01	-40.0	0	0.3	62.3	69.3	0	1	0	0	0	80.2	63.2	0.0
2017 06/21 18:00	60.0	34.3	293.6	18.6	30.38	60.6	961.0	13.01	-40.0	0	0.6	62.3	69.5	0	1	0	0	0	80.1	63.3	0.0
2017 06/21 18:15	60.3	33.9	313.6	16.6	30.38	60.8	961.0	12.99	-40.0	0	0.3	62.3	69.2	0	1	0	0	0	80.3	63.3	0.0
2017 06/21 18:30	60.1	34.2	303.8	12.8	30.39	61.1	826.0	13.02	-40.0	0	0.3	62.3	69.5	0	1	0	0	0	80.2	63.3	0.0
2017 06/21 18:45	60.4	35.1	309.4	12.6	30.39	61.4	830.0	12.99	-40.0	0	0.4	60.5	69.4	0	1	0	0	0	80.0	63.3	0.0
2017 06/21 19:00	58.9	38.1	315.7	15.1	30.39	61.7	939.0	13.01	-40.0	0	0.5	59.6	68.4	0	1	0	0	0	79.4	63.1	0.0
2017 06/21 19:15	58.2	36.5	323.1	14.9	30.39	61.9	944.0	13.01	-40.0	0	0.3	59.6	68.6	0	1	0	0	0	79.0	63.0	0.0
2017 06/21 19:30	57.5	35.2	323.2	15.4	30.39	62.2	962.0	13.01	-40.0	0	0.4	58.7	64.6	0	1	0	0	0	78.2	62.8	0.0
2017 06/21 19:45	56.5	36.8	324.3	19.2	30.39	62.4	961.0	13.01	-40.1	0	0.3	57.8	63.7	0	1	0	0	0	77.4	62.4	0.0
2017 06/21 20:00	56.0	38.9	308.4	15.2	30.40	62.6	959.0	12.99	-40.0	0	0.2	56.9	62.8	0	1	0	0	0	76.7	62.2	0.0
2017 06/21 20:15	54.9	40.7	324.3	15.5	30.40	62.9	954.0	12.99	-40.0	0	0.4	55.1	61.9	0	1	0	0	0	76.3	62.1	0.0
2017 06/21 20:30	54.0	41.2	326.3	16.1	30.40	63.0	944.0	13.02	-40.0	0	0.0	54.2	60.3	0	1	0	0	0	75.7	61.8	0.0
2017 06/21 20:45	52.8	42.9	325.3	18.2	30.40	63.3	862.0	12.99	-40.0	0	0.4	52.4	59.2	0	1	0	0	0	75.3	61.4	0.0
2017 06/21 21:00	52.4	44.0	334.6	18.4	30.40	63.5	523.0	13.01	-40.0	0	0.2	50.6	58.0	0	1	0	0	0	74.5	61.0	0.0
2017 06/21 21:15	52.2	38.4	342.7	16.9	30.40	63.6	281.9	13.00	-39.9	0	0.1	50.6	57.5	0	1	0	0	0	73.8	60.6	0.0
2017 06/21 21:30	52.8	31.3	349.1	13.2	30.41	63.7	66.5	12.99	-40.0	0	0.3	49.7	55.8	0	1	0	0	0	72.8	60.3	0.0
2017 06/21 21:45	52.1	29.4	355.3	16.8	30.41	63.7	10.9	12.99	-40.0	0	0.3	48.8	56.2	0	1	0	0	0	71.8	60.0	0.0
2017 06/21 22:00	52.9	28.7	341.2	14.8	30.41	63.7	2.0	13.02	-40.0	0	0.1	49.7	54.9	0	1	0	0	0	70.8	59.7	0.0
2017 06/21 22:15	52.8	29.8	343.0	10.9	30.41	63.6	0.3	12.99	-40.0	0	0.0	49.7	55.1	0	1	0	0	0	70.2	59.5	0.0
2017 06/21 22:30	52.2	31.8	322.6	11.5	30.40	63.6	0.0	13.01	-40.0	0	0.2	47.9	54.7	0	1	0	0	0	69.3	59.2	0.0
2017 06/21 22:45	52.6	27.9	327.5	15.4	30.40	63.5	0.0	12.99	-40.0	0	0.4	47.0	55.0	0	1	0	0	0	68.5	58.8	0.0
2017 06/21 23:00	52.2	25.2	351.3	22.2	30.39	63.4	-0.3	12.99	-40.0	0	0.6	47.9	55.3	0	1	0	0	0	67.7	58.5	0.0
2017 06/21 23:15	52.4	22.6	349.7	24.8	30.38	63.2	-0.3	13.01	-40.0	0	0.5	48.8	55.5	0	1	0	0	0	67.3	58.4	0.0
2017 06/21 23:30	53.2	19.6	348.8	22.1	30.38	63.1	0.0	13.01	-40.0	0	0.4	49.7	56.9	0	1	0	0	0	66.6	58.0	0.0
2017 06/21 23:45	52.7	16.0	355.6	22.8	30.38	62.8	0.0	13.00	-40.0	0	0.4	49.7	56.6	0	1	0	0	0	65.9	57.7	0.0
2017 06/22 00:00	52.6	15.2	23.7	22.5	30.38	62.4	0.0	13.02	-40.0	0	0.3	48.8	57.0	0	1	0	0	0	65.3	57.4	0.0
2017 06/22 00:15	52.8	12.4	0.1	23.3	30.38	62.2	0.0	13.01	-40.0	0	0.2	50.6	53.5	0	1	0	0	0	64.9	57.2	0.0
2017 06/22 00:30	53.4	11.0	355.1	19.4	30.39	61.8	-0.3	12.99	-39.9	0	0.4	48.8	50.6	0	1	0	0	0	64.2	56.9	0.0
2017 06/22 00:45	54.2	8.3	353.2	16.8	30.38	61.6	0.0	13.00	-40.0	0	-0.1	50.6	49.9	0	1	0	0	0	63.6	56.6	0.0
2017 06/22 01:00	52.1	12.8	348.1	8.1	30.39	61.2	0.0	13.01	-39.9	0	0.0	48.8	47.4	0	1	0	0	0	63.0	56.2	0.0
2017 06/22 01:15	54.3	15.3	34.1	5.5	30.37	61.0	0.0	12.99	-40.0	0	0.2	49.7	46.6	0	1	0	0	0	62.5	56.0	0.0
2017 06/22 01:30	54.5	18.0	63.8	6.2	30.38	60.8	0.0	13.01	-40.0	0	-0.0	48.8	44.9	0	1	0	0	0	61.9	55.7	0.0
2017 06/22 01:45	53.1	21.4	86.3	13.3	30.36	60.5	-0.3	13.00	-40.0	0	0.2	49.7	44.0	0	1	0	0	0	61.3	55.4	0.0
2017 06/22 02:00	52.8	20.6	72.3	14.7	30.36	60.3	0.0	13.01	-40.0	0	0.3	48.8	43.0	0	1	0	0	0	60.7	55.0	0.0
2017 06/22 02:15	51.4	23.6	64.7	15.9	30.36	60.1	0.0	13.00	-40.0	0	0.2	47.9	42.2	0	1	0	0	0	60.4	54.8	0.0
2017 06/22 02:30	50.9	23.5	67.4	15.3	30.36	59.9	0.0	13.01	-39.9	0	0.4	47.0	41.3	0	1	0	0	0	60.0	54.5	0.0
2017 06/22 02:45	50.3	27.7	93.6	17.9	30.35	59.7	0.0	12.98	-39.9	0	0.6	45.2	40.6	0	1	0	0	0	59.4	54.2	0.0
2017 06/22 03:00	50.4	30.3	90.4	16.8	30.35	59.5	0.0	13.00	-39.9	0	0.6	46.1	40.8	0	1	0	0	0	59.0	53.9	0.0
2017 06/22 03:15	50.0	25.9	111.6	18.7	30.34	59.2	0.0	13.01	-40.0	0	0.4	46.1	40.5	0	1	0	0	0	58.7	53.5	0.0
2017 06/22 03:30	50.0	22.3	77.0	17.2	30.34	59.0	0.0	13.01	-39.9	0	0.6	45.2	40.4	0	1	0	0	0	58.2	53.3	0.0
2017 06/22 03:45	49.8	22.7	84.5	16.5	30.35	58.6	0.0	13.01	-40.0	0	0.4	45.2	40.2	0	1	0	0	0	58.0	53.0	0.0
2017 06/22 04:00	49.3	24.1	91.3	18.9	30.34	58.4	0.0	13.00	-40.0	0	0.5	45.2	39.8	0	1	0	0	0	57.6	52.8	0.0
2017 06/22 04:15	49.2	25.5	96.3	19.8	30.34	58.2	-0.3	12.99	-40.0	0	0.5	46.1	39.6	0	1	0	0	0	57.3	52.5	0.0
2017 06/22 04:30	48.8	25.1	89.8	21.5	30.33	57.8	0.3	12.99	-40.0	0	0.3	46.1	39.4	0	1	0	0	0	56.8	52.2	0.0
2017 06/22 04:45	48.3	26.6	92.9	24.1	30.33	57.6	3.4	12.98	-40.0	0	0.4	45.2	42.9	0	1	0	0	0	56.4	52.0	0.0
2017 06/22 05:00	47.7	28.2	98.0	26.1	30.32	57.3	30.5	12.98	-40.0	0	0.3	44.3	47.6	0	1	0	0	0	56.1	51.7	0.0
2017 06/22 05:15	47.2	29.6	87.9	26.9	30.32	56.9	176.4	13.00	-40.0	0	0.6	43.4	47.4	0	1	0	0	0	55.9	51.5	0.0
2017 06/22 05:30	47.1	30.9	84.6	26.5	30.32	56.5	428.8	12.99	-40.0	0	0.4	44.3	47.8	0	1	0	0	0	55.5	51.3	0.0
2017 06/22 05:45	47.1	29.9	78.7	27.4	30.32	56.2	585.9	12.99	-40.0	0	0.4	44.3	48.5	0	1	0	0	0	55.1	51.1	0.0
2017 06/22 06:00	46.8	30.1	84.2	28.8	30.31	55.9	675.1	12.99	-40.0	0	0.0	46.1	48.8	0	1	0	0	0	54.8	50.9	0.0
2017 06/22 06:15	47.0	30.0	80.1	30.5	30.30	55.4	724.0	12.98	-40.0	0	-0.1	47.0	48.9	0	1	0	0	0	54.6	50.7	0.0
2017 06/22 06:30	47.2	29.8	90.2	30.0	30.30	55.0	749.0	13.00	-40.0	0	-0.1	47.9	49.7	0	1	0	0	0	54.3	50.5	0.0
2017 06/22 06:45	47.2	29.7	77.4	30.4	30.29	54.6	760.0	12.99	-40.0	0	-0.4	49.7	50.5	0	1	0	0	0	54.1	50.4	0.0
2017 06/22 07:00	47.8	31.7	87.7	31.4	30.29	54.2	768.0	13.01	-40.0	0	-0.2	49.7	51.5	0	1	0	0	0	53.9	50.2	0.0
2017 06/22 07:15	47.6	36.6	86.1	33.8	30.29	53.9	779.0	13.00	-40.0	0	-0.2	50.6	51.7	0	1	0	0	0	53.9	50.0	0.0
2017 06/22 07:30	48.1	35.4	86.8	33.5	30.29	53.5	787.0	12.99	-40.0	0	0.0	50.6	52.5	0	1	0	0	0	54.0	49.8	0.0
2017 06/22 07:45	47.7	35.9	96.0	31.2	30.29	53.3	792.0	13.01	-40.0	0	-0.2	51.5	53.4	0	1	0	0	0	54.3	49.8	0.0
2017 06/22 08:00	47.8	38.2	88.8	32.4	30.29	53.1	797.0	12.99	-40.0	0	-0.3	53.3	54.1	0	1	0	0	0	54.7	49.8	0.0
2017 06/22 08:15	48.1	39.6	97.8	30.2	30.29	52.9	801.0	12.99	-40.0	0	-0.2	53.3	54.7	0	1	0	0	0	55.0	50.0	0.0
2017 06/22 08:30	48.1	41.5	83.4	32.6	30.29	52.6	804.0	13.00	-40.0	0	0.0	52.4	55.1	0	1	0	0	0	55.2	50.1	0.0
2017 06/22 08:45	48.3	44.2	90.1	33.8	30.29	52.4	807.0	13.00	-40.0	0	0.1	53.3	55.7	0	1	0	0	0	55.6	50.3	0.0
2017 06/22 09:00	48.5	42.8	83.9	33.6	30.29	52.3	811.0	12.99	-40.1	0	0.5	54.2	56.6	0	1	0	0	0	56.1	50.5	0.0
2017 06/22 09:15	48.9	43.2	93.7	32.5	30.29	52.2	813.0	13.01	-40.0	0	0.6	51.5	56.2	0	1	0	0	0	56.5	50.9	0.0
2017 06/22 09:30	48.2	43.4	79.6	31.2	30.30	52.0	816.0	12.97	-40.0	0	0.0	53.3	56.5	0	1	0	0	0	56.8	51.3	0.0
2017 06/22 09:45	49.5	39.5	95.2	28.4	30.30	52.0	819.0	12.97	-39.9	0	0.1	54.2	57.8	0	1	0	0	0	57.3	51.7	0.0
2017 06/22 10:00	49.3	40.1	90.6	27.5	30.30	51.9	822.0	12.97	-39.9	0	0.4	54.2	58.2	0	1	0	0	0	57.9	52.2	0.0
2017 06/22 10:15	50.6	40.2	94.3	28.8	30.30	51.8	825.0	13.00	-40.0	0	0.5	53.3	58.5	0	1	0	0	0	58.5	52.5	0.0
2017 06/22 10:30	51.2	36.8	83.0	25.9	30.31	51.8	827.0	13.00	-40.0	0	0.6	54.2	59.8	0	1	0	0	0	59.2	53.2	0.0
2017 06/22 10:45	51.6	34.5	103.7	24.9	30.31	51.8	829.0	12.98	-40.0	0	0.6	56.0	62.1	0	1	0	0	0	60.1	53.9	0.0
2017 06/22 11:00	51.7	34.5	98.1	22.5	30.32	51.8	831.0	13.00	-39.9	0	0.6	56.9	61.8	0	1	0	0	0	61.1	54.9	0.0
2017 06/22 11:15	52.8	30.5	69.6	22.1	30.32	51.8	832.0	12.99	-40.1	0	0.5	57.8	62.8	0	1	0	0	0	62.1	55.9	0.0
2017 06/22 11:30	53.7	33.3	84.0	23.1	30.32	51.9	833.0	13.00	-40.0	0	0.3	58.7	64.2	0	1	0	0	0	63.2	57.2	0.0
2017 06/22 11:45	54.7	30.9	89.1	19.4	30.33	52.0	834.0	12.99	-40.0	0	0.2	60.5	66.1	0	1	0	0	0	64.8	57.9	0.0
2017 06/22 12:00	55.0	27.2	82.7	21.3	30.33	52.0	834.0	12.99	-40.1	0	0.7	59.6	65.7	0	1	0	0	0	66.3	58.7	0.0
2017 06/22 12:15	55.6	28.1	85.8	22.5	30.33	52.0	833.0	12.97	-40.0	0	0.6	60.5	66.4	0	1	0	0	0	67.3	59.2	0.0
2017 06/22 12:30	56.7	31.0	76.2	19.2	30.33	52.1	835.0	12.99	-40.0	0	0.9	63.2	66.5	0	1	0	0	0	68.4	59.9	0.0
2017 06/22 12:45	56.9	25.5	81.9	23.4	30.33	52.2	835.0	12.98	-40.0	0	0.9	62.3	67.3	0	1	0	0	0	69.3	61.1	0.0
2017 06/22 13:00	57.3	25.1	93.9	21.9	30.33	52.2	835.0	13.01	-40.0	0	0.7	64.1	69.3	0	1	0	0	0	70.3	61.4	0.0
2017 06/22 13:15	58.1	26.5	89.9	24.9	30.33	52.4	834.0	12.98	-40.0	0	-0.1	64.1	68.7	0	1	0	0	0	70.9	61.8	0.0
2017 06/22 13:30	58.3	25.2	83.7	21.9	30.33	52.4	833.0	13.01	-40.1	0	0.9	65.0	70.5	0	1	0	0	0	71.8	62.2	0.0
2017 06/22 13:45	60.3	21.8	105.6	17.4	30.33	52.5	833.0	12.97	-40.0	0	0.6	63.2	69.4	0	1	0	0	0	72.6	62.3	0.0
2017 06/22 14:00	60.0	21.4	121.7	21.3	30.33	52.6	834.0	12.99	-40.0	0	0.1	64.1	70.3	0	1	0	0	0	73.0	62.7	0.0
2017 06/22 14:15	60.9	23.4	152.7	11.1	30.33	52.7	836.0	12.99	-40.0	0	0.5	63.2	70.0	0	1	0	0	0	73.1	62.8	0.0
2017 06/22 14:30	59.8	18.7	64.3	21.6	30.33	52.9	837.0	13.00	-39.9	0	1.2	64.1	71.1	0	1	0	0	0	73.6	62.7	0.0
2017 06/22 14:45	60.0	20.9	33.0	18.7	30.33	53.0	839.0	13.01	-40.0	0	0.7	64.1	71.1	0	1	0	0	0	74.0	62.4	0.0
2017 06/22 15:00	60.9	21.6	44.7	13.3	30.34	53.1	839.0	12.99	-40.0	0	0.8	65.0	72.0	0	1	0	0	0	74.4	62.2	0.0
2017 06/22 15:15	61.0	20.0	90.0	13.8	30.34	53.3	841.0	13.01	-40.0	0	0.9	65.0	71.8	0	1	0	0	0	74.7	62.1	0.0
2017 06/22 15:30	61.0	18.3	62.8	17.1	30.34	53.4	841.0	13.01	-40.0	0	0.4	65.0	71.7	0	1	0	0	0	75.0	61.9	0.0
2017 06/22 15:45	61.5	22.4	83.3	8.2	30.34	53.5	842.0	12.99	-40.0	0	0.9	65.9	72.6	0	1	0	0	0	75.3	61.9	0.0
2017 06/22 16:00	63.0	20.4	91.4	16.6	30.34	53.7	843.0	12.99	-39.9	0	0.3	65.9	73.0	0	1	0	0	0	75.7	61.9	0.0
2017 06/22 16:15	61.9	23.1	103.8	12.2	30.34	53.9	844.0	13.01	-40.0	0	0.7	64.1	73.5	0	1	0	0	0	76.0	61.8	0.0
2017 06/22 16:30	62.7	24.0	86.1	13.3	30.34	54.1	845.0	13.03	-39.9	0	0.5	65.9	73.3	0	1	0	0	0	76.6	61.8	0.0
2017 06/22 16:45	61.3	20.9	70.4	18.6	30.34	54.3	846.0	12.99	-39.9	0	0.7	65.9	74.0	0	1	0	0	0	77.0	61.8	0.0
2017 06/22 17:00	61.6	24.8	44.2	12.2	30.34	54.5	848.0	12.99	-39.9	0	0.4	65.9	73.9	0	1	0	0	0	77.5	61.8	0.0
2017 06/22 17:15	62.4	21.4	70.9	21.5	30.35	54.8	926.0	12.99	-40.0	0	0.4	65.0	73.3	0	1	0	0	0	78.0	61.9	0.0
2017 06/22 17:30	62.4	25.9	104.9	9.5	30.34	55.0	956.0	13.01	-39.9	0	0.6	65.0	73.7	0	1	0	0	0	78.4	61.9	0.0
2017 06/22 17:45	61.4	25.3	61.0	14.8	30.35	55.2	960.0	13.01	-39.9	0	0.2	65.0	74.9	0	1	0	0	0	78.6	62.0	0.0
2017 06/22 18:00	61.7	27.1	57.8	17.8	30.35	55.5	961.0	13.01	-39.9	0	0.3	65.0	73.6	0	1	0	0	0	79.1	62.0	0.0
2017 06/22 18:15	61.5	26.6	70.3	17.4	30.35	55.9	961.0	13.00	-40.0	0	0.0	65.0	74.5	0	1	0	0	0	79.2	62.0	0.0
2017 06/22 18:30	61.3	27.0	58.0	15.3	30.35	56.1	835.0	13.01	-40.0	0	0.2	64.1	74.9	0	1	0	0	0	79.2	62.1	0.0
2017 06/22 18:45	60.9	24.0	51.5	17.6	30.36	56.5	837.0	12.99	-40.1	0	0.3	63.2	74.0	0	1	0	0	0	79.0	62.0	0.0
2017 06/22 19:00	60.8	20.3	62.8	15.8	30.36	56.7	931.0	13.01	-40.0	0	0.3	62.3	73.3	0	1	0	0	0	78.5	61.9	0.0
2017 06/22 19:15	60.6	21.2	90.8	16.0	30.36	56.9	944.0	12.99	-39.9	0	0.1	62.3	73.5	0	1	0	0	0	78.1	61.8	0.0
2017 06/22 19:30	60.3	22.6	60.9	18.9	30.37	57.3	961.0	13.00	-40.1	0	0.0	61.4	69.4	0	1	0	0	0	77.5	61.7	0.0
2017 06/22 19:45	60.0	23.2	55.2	20.6	30.37	57.6	960.0	13.01	-40.0	0	-0.3	62.3	67.9	0	1	0	0	0	77.0	61.5	0.0
2017 06/22 20:00	59.7	27.0	60.4	18.6	30.38	57.8	957.0	12.99	-40.1	0	0.2	59.6	66.7	0	1	0	0	0	76.5	61.3	0.0
2017 06/22 20:15	58.8	27.9	54.7	18.9	30.38	58.0	952.0	12.98	-39.9	0	0.2	58.7	65.9	0	1	0	0	0	76.2	61.2	0.0
2017 06/22 20:30	58.3	30.1	66.3	19.6	30.38	58.3	939.0	12.99	-40.1	0	0.2	57.8	64.5	0	1	0	0	0	75.6	61.0	0.0
2017 06/22 20:45	57.5	30.4	60.9	21.2	30.38	58.5	902.0	12.99	-40.0	0	0.4	56.9	63.4	0	1	0	0	0	74.8	60.7	0.0
2017 06/22 21:00	57.6	31.4	56.8	19.6	30.39	58.7	521.1	12.99	-40.1	0	0.6	55.1	62.7	0	1	0	0	0	74.0	60.5	0.0
2017 06/22 21:15	56.6	31.4	69.8	20.7	30.39	58.9	259.9	12.99	-40.1	0	0.4	55.1	62.0	0	1	0	0	0	73.5	60.3	0.0
2017 06/22 21:30	56.7	31.9	59.0	22.8	30.40	59.1	65.1	13.02	-40.0	0	0.4	54.2	61.2	0	1	0	0	0	72.6	60.1	0.0
2017 06/22 21:45	56.1	32.6	70.1	22.6	30.40	59.2	10.2	13.01	-40.0	0	0.2	54.2	61.0	0	1	0	0	0	71.8	59.7	0.0
2017 06/22 22:00	56.0	32.6	71.8	23.8	30.40	59.3	1.7	12.99	-39.9	0	0.2	54.2	60.5	0	1	0	0	0	70.9	59.5	0.0
2017 06/22 22:15	56.0	32.6	64.3	24.8	30.40	59.3	0.0	12.99	-40.0	0	0.6	53.3	60.2	0	1	0	0	0	70.3	59.3	0.0
2017 06/22 22:30	55.5	32.5	70.0	24.7	30.40	59.3	0.0	13.01	-40.0	0	0.1	53.3	59.5	0	1	0	0	0	69.6	59.0	0.0
2017 06/22 22:45	54.8	32.7	70.4	24.8	30.39	59.2	-0.3	13.01	-40.0	0	0.2	52.4	58.5	0	1	0	0	0	69.0	58.7	0.0
2017 06/22 23:00	54.8	33.6	70.8	24.0	30.39	59.2	0.0	12.99	-40.0	0	0.4	51.5	57.1	0	1	0	0	0	68.2	58.4	0.0
2017 06/22 23:15	54.5	32.1	68.3	25.5	30.40	59.1	0.0	13.01	-40.0	0	0.4	51.5	56.7	0	1	0	0	0	67.7	58.3	0.0
2017 06/22 23:30	54.5	32.4	75.7	25.9	30.39	59.0	0.0	12.98	-39.9	0	0.4	51.5	57.1	0	1	0	0	0	66.9	57.9	0.0
2017 06/22 23:45	53.9	32.9	73.2	26.6	30.39	58.9	0.0	12.99	-40.0	0	0.1	51.5	57.0	0	1	0	0	0	66.4	57.6	0.0
2017 06/23 00:00	54.3	32.7	84.3	27.5	30.39	58.6	-0.3	13.00	-40.0	0	0.2	50.6	56.7	0	1	0	0	0	65.7	57.4	0.0
2017 06/23 00:15	53.9	32.9	86.0	27.3	30.38	58.4	-0.3	12.99	-40.0	0	0.2	50.6	56.4	0	1	0	0	0	65.3	57.2	0.0
2017 06/23 00:30	53.4	33.3	87.3	26.1	30.38	58.2	0.0	13.00	-39.9	0	0.2	50.6	56.0	0	1	0	0	0	64.7	56.9	0.0
2017 06/23 00:45	53.2	33.7	87.2	26.6	30.37	58.0	-0.3	13.01	-40.1	0	0.4	49.7	55.3	0	1	0	0	0	64.2	56.7	0.0
2017 06/23 01:00	53.1	34.7	86.3	28.4	30.36	57.8	0.0	13.01	-40.0	0	0.2	49.7	55.2	0	1	0	0	0	63.7	56.4	0.0
2017 06/23 01:15	52.1	35.4	82.9	27.3	30.37	57.6	-0.3	13.01	-40.0	0	0.4	49.7	54.9	0	1	0	0	0	63.3	56.2	0.0
2017 06/23 01:30	52.6	35.3	84.6	28.8	30.36	57.4	-0.3	13.00	-40.0	0	0.2	49.7	54.7	0	1	0	0	0	62.9	55.9	0.0
2017 06/23 01:45	52.7	35.4	93.8	28.2	30.36	57.1	-0.3	12.97	-40.0	0	0.3	48.8	54.2	0	1	0	0	0	62.4	55.7	0.0
2017 06/23 02:00	52.6	34.9	85.2	29.3	30.35	56.9	-0.3	13.00	-40.0	0	0.4	48.8	54.2	0	1	0	0	0	62.0	55.5	0.0
2017 06/23 02:15	52.5	34.8	85.6	28.7	30.34	56.5	-0.3	12.99	-40.0	0	0.4	48.8	54.2	0	1	0	0	0	61.7	55.4	0.0
2017 06/23 02:30	52.3	34.8	83.7	30.0	30.34	56.3	0.0	13.01	-40.0	0	0.3	48.8	54.2	0	1	0	0	0	61.3	55.1	0.0
2017 06/23 02:45	52.6	33.4	89.8	30.6	30.33	56.1	0.0	13.01	-40.0	0	-0.0	48.8	53.8	0	1	0	0	0	60.9	54.9	0.0
2017 06/23 03:00	52.7	32.6	87.8	30.7	30.33	55.8	0.0	12.99	-40.0	0	0.2	48.8	53.9	0	1	0	0	0	60.5	54.7	0.0
2017 06/23 03:15	53.0	31.8	89.1	31.3	30.32	55.4	0.0	12.99	-40.0	0	0.4	48.8	53.9	0	1	0	0	0	60.3	54.6	0.0
2017 06/23 03:30	52.7	32.4	91.0	31.9	30.32	55.2	-0.3	12.99	-40.0	0	0.4	48.8	54.0	0	1	0	0	0	60.0	54.3	0.0
2017 06/23 03:45	52.6	32.1	86.8	31.6	30.31	55.0	-0.3	12.99	-40.0	0	0.4	48.8	54.0	0	1	0	0	0	59.6	54.1	0.0
2017 06/23 04:00	52.7	31.8	93.9	32.0	30.30	54.6	0.0	13.01	-40.0	0	0.4	48.8	53.8	0	1	0	0	0	59.4	53.9	0.0
2017 06/23 04:15	52.2	32.1	93.2	32.5	30.31	54.4	0.0	13.00	-40.0	0	0.2	48.8	53.8	0	1	0	0	0	59.2	53.8	0.0
2017 06/23 04:30	52.2	32.2	86.8	32.1	30.30	54.0	0.3	13.01	-40.0	0	0.5	47.9	53.5	0	1	0	0	0	58.8	53.5	0.0
2017 06/23 04:45	51.6	32.9	88.4	32.4	30.30	53.7	3.4	12.98	-40.0	0	0.3	47.9	53.1	0	1	0	0	0	58.7	53.3	0.0
2017 06/23 05:00	51.5	32.8	86.5	32.2	30.29	53.5	27.8	13.01	-40.0	0	0.4	47.9	52.8	0	1	0	0	0	58.5	53.2	0.0
2017 06/23 05:15	51.1	32.4	91.0	31.3	30.29	53.3	171.3	12.99	-39.9	0	0.4	47.9	52.9	0	1	0	0	0	58.2	53.0	0.0
2017 06/23 05:30	51.2	33.2	86.4	29.1	30.29	52.9	428.2	13.00	-40.0	0	0.0	47.9	53.4	0	1	0	0	0	58.0	52.8	0.0
2017 06/23 05:45	51.2	31.8	89.9	31.6	30.29	52.6	585.2	13.00	-40.0	0	0.2	48.8	53.4	0	1	0	0	0	57.8	52.7	0.0
2017 06/23 06:00	51.2	32.7	81.0	30.8	30.29	52.4	673.1	13.01	-40.0	0	-0.0	50.6	53.5	0	1	0	0	0	57.6	52.4	0.0
2017 06/23 06:15	51.4	31.6	84.6	31.4	30.29	52.2	722.0	13.01	-39.9	0	-0.2	51.5	53.7	0	1	0	0	0	57.5	52.3	0.0
2017 06/23 06:30	52.0	32.0	86.0	30.8	30.28	52.0	746.0	12.97	-39.9	0	-0.2	52.4	54.6	0	1	0	0	0	57.3	52.2	0.0
2017 06/23 06:45	52.2	31.5	85.6	32.9	30.28	51.8	759.0	12.97	-39.9	0	-0.3	53.3	55.1	0	1	0	0	0	57.0	52.0	0.0
2017 06/23 07:00	52.1	31.8	82.6	33.1	30.28	51.6	766.0	13.00	-39.9	0	-0.4	54.2	56.0	0	1	0	0	0	57.0	52.0	0.0
2017 06/23 07:15	52.5	30.5	89.8	32.2	30.28	51.4	777.0	12.99	-40.0	0	-0.3	56.0	56.7	0	1	0	0	0	57.3	52.0	0.0
2017 06/23 07:30	52.5	31.6	78.8	28.9	30.28	51.3	785.0	13.00	-39.9	0	-0.2	56.0	57.5	0	1	0	0	0	57.5	52.0	0.0
2017 06/23 07:45	53.2	32.0	87.1	31.5	30.28	51.1	790.0	12.98	-40.0	0	0.0	56.9	58.5	0	1	0	0	0	57.7	52.1	0.0
2017 06/23 08:00	53.6	30.9	83.3	31.9	30.28	51.1	795.0	13.01	-40.0	0	0.0	57.8	59.4	0	1	0	0	0	58.3	52.3	0.0
2017 06/23 08:15	53.6	31.7	87.0	31.6	30.28	51.1	799.0	12.98	-39.9	0	-0.4	57.8	59.8	0	1	0	0	0	58.6	52.5	0.0
2017 06/23 08:30	53.6	30.9	95.2	32.6	30.28	51.0	803.0	13.00	-39.9	0	0.1	57.8	60.2	0	1	0	0	0	59.0	52.9	0.0
2017 06/23 08:45	54.2	34.9	95.3	29.8	30.28	51.0	806.0	12.98	-40.0	0	-0.0	59.6	61.3	0	1	0	0	0	59.3	53.1	0.0
2017 06/23 09:00	53.3	31.1	83.9	32.9	30.28	51.0	809.0	12.99	-40.0	0	-0.0	59.6	61.6	0	1	0	0	0	59.7	53.7	0.0
2017 06/23 09:15	54.4	31.8	89.5	34.4	30.29	51.1	812.0	12.98	-40.0	0	0.9	57.8	62.1	0	1	0	0	0	60.3	54.0	0.0
2017 06/23 09:30	55.5	32.3	77.7	28.5	30.28	51.1	815.0	13.00	-40.0	0	0.6	58.7	62.5	0	1	0	0	0	60.9	54.6	0.0
2017 06/23 09:45	55.4	30.5	90.7	31.6	30.29	51.1	818.0	12.97	-40.0	0	0.3	59.6	63.4	0	1	0	0	0	61.8	55.0	0.0
2017 06/23 10:00	55.6	31.2	76.9	33.6	30.28	51.1	821.0	13.00	-39.9	0	0.5	58.7	64.6	0	1	0	0	0	62.2	55.6	0.0
2017 06/23 10:15	56.0	32.4	95.6	31.3	30.28	51.4	824.0	12.99	-40.1	0	0.3	58.7	64.7	0	1	0	0	0	62.7	56.0	0.0
2017 06/23 10:30	56.2	34.3	93.0	31.2	30.29	51.4	826.0	12.97	-40.0	0	0.7	59.6	64.7	0	1	0	0	0	63.3	56.7	0.0
2017 06/23 10:45	56.1	33.6	93.9	31.4	30.29	51.6	828.0	12.99	-40.1	0	0.7	59.6	66.1	0	1	0	0	0	64.1	57.5	0.0
2017 06/23 11:00	57.1	32.4	69.2	29.9	30.30	51.6	830.0	12.97	-40.0	0	0.1	60.5	67.0	0	1	0	0	0	65.1	58.7	0.0
2017 06/23 11:15	57.6	31.1	88.3	32.1	30.30	51.8	831.0	13.00	-40.0	0	0.9	60.5	67.2	0	1	0	0	0	66.1	59.6	0.0
2017 06/23 11:30	58.1	31.3	82.8	26.9	30.30	51.9	833.0	12.99	-39.9	0	0.4	63.2	68.2	0	1	0	0	0	67.3	60.7	0.0
2017 06/23 11:45	59.0	30.8	105.9	30.9	30.30	52.0	833.0	13.00	-40.0	0	0.1	65.0	68.6	0	1	0	0	0	68.6	61.8	0.0
2017 06/23 12:00	59.8	29.1	80.0	30.4	30.31	52.2	833.0	13.00	-40.1	0	-0.1	65.0	70.4	0	1	0	0	0	69.9	62.8	0.0
2017 06/23 12:15	60.1	30.8	77.9	31.8	30.31	52.4	833.0	13.00	-39.9	0	0.4	65.9	70.5	0	1	0	0	0	70.9	63.5	0.0
2017 06/23 12:30	60.5	29.6	82.3	28.1	30.31	52.5	834.0	12.99	-40.0	0	0.5	65.0	70.2	0	1	0	0	0	71.9	64.4	0.0
2017 06/23 12:45	60.8	29.1	95.5	30.9	30.32	52.6	835.0	13.01	-40.0	0	0.4	65.9	71.9	0	1	0	0	0	72.9	65.1	0.0
2017 06/23 13:00	61.3	28.6	88.4	27.8	30.32	52.9	835.0	13.01	-40.0	0	1.3	65.9	71.5	0	1	0	0	0	73.9	65.6	0.0
2017 06/23 13:15	61.6	27.4	86.5	26.0	30.32	52.9	833.0	12.99	-39.9	0	-0.1	66.8	72.2	0	1	0	0	0	74.5	66.0	0.0
2017 06/23 13:30	62.7	28.2	70.9	22.9	30.32	53.1	832.0	13.00	-40.0	0	0.5	67.7	74.4	0	1	0	0	0	75.3	66.5	0.0
2017 06/23 13:45	62.7	27.6	88.4	26.1	30.32	53.3	832.0	12.99	-39.9	0	0.5	66.8	73.9	0	1	0	0	0	75.8	66.8	0.0
2017 06/23 14:00	62.2	27.5	91.1	24.1	30.33	53.5	833.0	12.99	-39.9	0	0.9	67.7	74.6	0	1	0	0	0	76.5	66.7	0.0
2017 06/23 14:15	63.0	27.3	98.1	23.1	30.33	53.5	835.0	12.99	-40.0	0	0.2	67.7	75.4	0	1	0	0	0	76.8	66.9	0.0
2017 06/23 14:30	63.8	27.3	66.3	20.4	30.33	53.7	837.0	12.99	-40.0	0	0.2	69.5	76.0	0	1	0	0	0	77.5	67.0	0.0
2017 06/23 14:45	63.8	26.5	88.8	19.5	30.34	53.9	838.0	12.99	-40.1	0	1.1	69.5	77.4	0	1	0	0	0	78.2	67.0	0.0
2017 06/23 15:00	64.2	26.9	91.6	22.4	30.34	54.1	839.0	12.99	-40.0	0	-0.0	69.5	76.9	0	1	0	0	0	78.5	66.9	0.0
2017 06/23 15:15	65.0	25.4	62.2	23.9	30.34	54.2	839.0	13.01	-40.0	0	0.7	69.5	76.9	0	1	0	0	0	79.1	66.8	0.0
2017 06/23 15:30	65.3	26.1	77.7	18.1	30.34	54.4	840.0	12.99	-40.0	0	0.6	70.4	77.4	0	1	0	0	0	79.5	66.8	0.0
2017 06/23 15:45	65.4	26.2	98.3	21.6	30.34	54.6	841.0	13.01	-39.9	0	0.4	70.4	78.4	0	1	0	0	0	80.0	66.9	0.0
2017 06/23 16:00	66.1	25.3	88.4	20.7	30.35	54.8	842.0	12.99	-40.1	0	0.6	70.4	77.4	0	1	0	0	0	80.3	67.0	0.0
2017 06/23 16:15	65.9	24.8	76.2	21.4	30.36	55.0	843.0	13.01	-40.0	0	0.4	70.4	78.4	0	1	0	0	0	80.5	66.7	0.0
2017 06/23 16:30	67.6	24.4	48.7	12.2	30.36	55.2	843.0	12.98	-40.1	0	0.0	69.5	77.6	0	1	0	0	0	81.0	66.6	0.0
2017 06/23 16:45	66.3	25.6	76.3	17.9	30.36	55.4	843.0	12.99	-40.0	0	0.6	68.6	78.2	0	1	0	0	0	81.5	66.5	0.0
2017 06/23 17:00	67.0	25.4	70.3	16.8	30.36	55.8	845.0	12.99	-39.9	0	0.4	70.4	79.2	0	1	0	0	0	82.0	66.5	0.0
2017 06/23 17:15	66.4	25.4	87.0	16.4	30.36	56.1	927.0	13.01	-40.0	0	0.6	68.6	79.0	0	1	0	0	0	82.5	66.5	0.0
2017 06/23 17:30	67.0	25.1	91.4	19.2	30.36	56.3	957.0	12.99	-40.0	0	0.2	70.4	78.6	0	1	0	0	0	82.8	66.5	0.0
2017 06/23 17:45	66.9	24.7	90.6	19.9	30.37	56.7	960.0	12.98	-40.0	0	0.5	70.4	79.6	0	1	0	0	0	83.1	66.4	0.0
2017 06/23 18:00	66.5	25.5	78.5	21.4	30.37	56.9	961.0	12.99	-40.1	0	0.6	70.4	80.5	0	1	0	0	0	83.5	66.5	0.0
2017 06/23 18:15	66.9	25.2	83.0	20.5	30.37	57.3	961.0	12.99	-39.9	0	0.1	70.4	79.9	0	1	0	0	0	83.7	66.5	0.0
2017 06/23 18:30	66.4	24.8	98.9	22.0	30.37	57.6	827.0	12.99	-40.0	0	0.6	68.6	78.7	0	1	0	0	0	83.7	66.5	0.0
2017 06/23 18:45	65.9	25.8	66.7	20.5	30.38	58.0	831.0	12.98	-40.0	0	0.1	67.7	78.2	0	1	0	0	0	83.5	66.4	0.0
2017 06/23 19:00	65.9	26.4	71.7	22.4	30.38	58.2	919.0	12.99	-40.0	0	-0.1	67.7	78.7	0	1	0	0	0	83.0	66.3	0.0
2017 06/23 19:15	65.7	26.7	60.1	23.5	30.39	58.6	944.0	13.01	-40.1	0	-1.0	66.8	78.2	0	1	0	0	0	82.6	66.1	0.0
2017 06/23 19:30	64.8	28.3	71.5	21.1	30.39	58.9	961.0	12.99	-40.0	0	0.2	65.9	73.2	0	1	0	0	0	81.8	66.1	0.0
2017 06/23 19:45	63.7	28.1	77.3	20.9	30.39	59.2	960.0	13.02	-40.0	0	-0.6	65.9	71.3	0	1	0	0	0	81.2	65.9	0.0
2017 06/23 20:00	63.6	28.7	66.3	22.6	30.39	59.5	958.0	13.01	-40.1	0	-0.3	63.2	70.4	0	1	0	0	0	80.7	65.7	0.0
2017 06/23 20:15	62.8	28.7	69.3	21.4	30.39	59.7	953.0	12.98	-40.0	0	0.0	62.3	69.3	0	1	0	0	0	80.2	65.6	0.0
2017 06/23 20:30	62.1	28.9	71.6	26.5	30.39	59.9	943.0	12.98	-40.0	0	0.5	61.4	68.3	0	1	0	0	0	79.6	65.3	0.0
2017 06/23 20:45	61.7	29.8	68.5	27.3	30.40	60.2	912.0	12.99	-40.0	0	0.2	60.5	67.2	0	1	0	0	0	79.0	64.9	0.0
2017 06/23 21:00	60.8	30.2	91.8	28.8	30.40	60.4	516.3	12.99	-40.0	0	0.2	59.6	66.0	0	1	0	0	0	78.1	64.6	0.0
2017 06/23 21:15	61.0	30.3	68.6	28.5	30.41	60.5	268.3	13.01	-39.9	0	0.5	58.7	65.6	0	1	0	0	0	77.4	64.4	0.0
2017 06/23 21:30	60.4	31.0	69.3	29.2	30.41	60.7	75.0	12.98	-40.0	0	0.5	57.8	64.8	0	1	0	0	0	76.5	63.9	0.0
2017 06/23 21:45	59.8	31.3	67.8	29.1	30.41	60.7	12.6	12.99	-39.9	0	0.1	58.7	64.5	0	1	0	0	0	75.6	63.5	0.0
2017 06/23 22:00	59.6	31.9	73.8	30.8	30.41	60.8	2.0	12.99	-40.0	0	0.4	58.7	64.3	0	1	0	0	0	75.0	63.2	0.0
2017 06/23 22:15	59.2	32.1	77.9	30.7	30.41	60.8	0.0	13.00	-39.9	0	0.3	58.7	64.2	0	1	0	0	0	74.4	62.9	0.0
2017 06/23 22:30	58.8	32.5	76.5	31.2	30.41	60.9	0.0	13.01	-40.0	0	0.4	57.8	63.6	0	1	0	0	0	73.7	62.4	0.0
2017 06/23 22:45	58.7	32.8	75.4	29.8	30.41	60.8	0.0	12.99	-40.0	0	0.5	57.8	63.7	0	1	0	0	0	73.0	62.1	0.0
2017 06/23 23:00	58.3	33.5	76.5	29.1	30.41	60.8	-0.3	12.99	-40.0	0	0.4	57.8	63.3	0	1	0	0	0	72.3	61.8	0.0
2017 06/23 23:15	58.2	33.9	78.5	30.7	30.41	60.6	0.0	13.01	-40.0	0	0.0	56.9	62.4	0	1	0	0	0	71.9	61.5	0.0
2017 06/23 23:30	58.0	34.5	81.2	31.2	30.40	60.6	-0.3	12.99	-40.1	0	0.3	56.0	61.3	0	1	0	0	0	71.3	61.3	0.0
2017 06/23 23:45	57.3	35.3	79.3	31.1	30.40	60.3	0.0	12.99	-40.1	0	0.4	55.1	60.5	0	1	0	0	0	70.8	61.1	0.0
2017 06/24 00:00	57.3	34.1	84.9	32.1	30.40	60.1	0.0	13.01	-40.0	0	0.6	54.2	60.0	0	1	0	0	0	69.9	60.9	0.0
2017 06/24 00:15	57.8	33.5	81.9	32.6	30.39	60.1	-0.3	12.98	-40.0	0	0.6	54.2	60.0	0	1	0	0	0	69.1	60.6	0.0
2017 06/24 00:30	57.3	33.6	87.2	33.8	30.39	59.9	0.0	13.00	-40.0	0	0.4	54.2	59.7	0	1	0	0	0	68.4	60.4	0.0
2017 06/24 00:45	57.3	33.8	86.8	33.6	30.39	59.7	0.0	13.00	-39.9	0	0.3	54.2	59.5	0	1	0	0	0	67.7	60.1	0.0
2017 06/24 01:00	57.5	34.1	83.8	33.1	30.39	59.5	0.0	13.00	-40.0	0	0.2	55.1	59.5	0	1	0	0	0	67.2	59.9	0.0
2017 06/24 01:15	57.5	33.8	87.8	32.0	30.39	59.3	0.0	13.01	-40.0	0	0.5	54.2	59.4	0	1	0	0	0	66.8	59.6	0.0
2017 06/24 01:30	57.5	33.9	85.6	30.8	30.39	59.0	0.0	13.01	-39.9	0	0.5	54.2	59.2	0	1	0	0	0	66.3	59.4	0.0
2017 06/24 01:45	57.3	33.2	78.2	29.8	30.38	58.8	-0.3	12.99	-39.9	0	0.4	54.2	59.1	0	1	0	0	0	65.7	59.2	0.0
2017 06/24 02:00	57.1	33.5	80.3	30.1	30.38	58.6	0.0	12.99	-40.0	0	0.2	55.1	59.1	0	1	0	0	0	65.3	58.8	0.0
2017 06/24 02:15	57.6	32.7	76.2	28.8	30.37	58.3	-0.3	13.00	-40.0	0	0.5	54.2	58.9	0	1	0	0	0	64.8	58.6	0.0
2017 06/24 02:30	57.7	31.2	82.9	29.4	30.36	58.1	0.0	12.99	-40.0	0	0.5	55.1	58.5	0	1	0	0	0	64.4	58.2	0.0
2017 06/24 02:45	57.2	31.9	84.6	31.1	30.36	57.8	-0.3	12.99	-40.0	0	0.2	55.1	58.7	0	1	0	0	0	63.9	57.9	0.0
2017 06/24 03:00	57.0	31.8	87.1	32.6	30.36	57.6	0.0	13.00	-39.9	0	0.4	55.1	58.7	0	1	0	0	0	63.6	57.7	0.0
2017 06/24 03:15	56.7	32.6	92.9	31.5	30.35	57.4	0.0	12.99	-40.0	0	0.3	54.2	58.7	0	1	0	0	0	63.2	57.6	0.0
2017 06/24 03:30	56.2	34.8	87.2	31.8	30.35	57.1	0.0	12.99	-39.9	0	0.3	53.3	58.0	0	1	0	0	0	62.8	57.4	0.0
2017 06/24 03:45	56.4	34.9	95.3	31.5	30.34	56.9	-0.3	12.99	-39.9	0	0.0	53.3	57.6	0	1	0	0	0	62.4	57.0	0.0
2017 06/24 04:00	55.9	35.6	84.5	30.9	30.34	56.7	0.0	12.99	-40.0	0	0.5	52.4	57.1	0	1	0	0	0	62.1	56.9	0.0
2017 06/24 04:15	55.8	37.1	81.1	30.5	30.34	56.5	0.0	13.02	-40.1	0	0.3	52.4	57.4	0	1	0	0	0	61.8	56.7	0.0
2017 06/24 04:30	55.8	36.6	83.8	30.4	30.33	56.3	0.3	12.99	-39.9	0	0.4	54.2	57.9	0	1	0	0	0	61.4	56.5	0.0
2017 06/24 04:45	56.9	30.1	77.7	32.4	30.33	56.1	3.4	12.99	-40.1	0	0.0	54.2	58.0	0	1	0	0	0	61.0	56.2	0.0
2017 06/24 05:00	56.7	30.3	79.4	32.9	30.33	55.9	28.2	13.00	-40.0	0	0.5	53.3	57.7	0	1	0	0	0	60.7	55.9	0.0
2017 06/24 05:15	56.7	30.2	80.4	33.4	30.33	55.6	176.8	12.99	-40.0	0	0.3	53.3	57.7	0	1	0	0	0	60.6	55.8	0.0
2017 06/24 05:30	56.5	31.2	75.0	34.1	30.33	55.4	438.3	12.99	-40.0	0	0.2	53.3	58.0	0	1	0	0	0	60.3	55.6	0.0
2017 06/24 05:45	56.6	32.2	75.8	34.6	30.33	55.2	588.0	12.99	-39.9	0	0.2	53.3	57.9	0	1	0	0	0	60.1	55.5	0.0
2017 06/24 06:00	56.0	33.3	73.5	32.7	30.33	55.0	673.5	12.99	-40.1	0	-0.0	55.1	57.8	0	1	0	0	0	59.9	55.4	0.0
2017 06/24 06:15	56.0	33.8	74.1	32.7	30.32	54.9	722.0	13.01	-39.9	0	0.0	56.0	57.8	0	1	0	0	0	59.7	55.1	0.0
2017 06/24 06:30	56.1	34.1	84.7	33.2	30.32	54.7	747.0	13.01	-40.0	0	-0.3	56.9	58.4	0	1	0	0	0	59.7	55.1	0.0
2017 06/24 06:45	55.8	34.8	86.0	34.1	30.32	54.6	759.0	13.00	-39.9	0	-0.4	57.8	58.8	0	1	0	0	0	59.7	55.0	0.0
2017 06/24 07:00	55.9	35.4	85.6	33.1	30.33	54.4	766.0	12.99	-39.9	0	-0.4	58.7	59.6	0	1	0	0	0	59.9	54.9	0.0
2017 06/24 07:15	56.0	36.6	91.0	33.6	30.33	54.4	777.0	13.01	-40.0	0	-0.2	58.7	59.8	0	1	0	0	0	60.1	55.0	0.0
2017 06/24 07:30	56.1	39.0	86.2	34.4	30.33	54.2	786.0	12.99	-39.9	0	0.0	58.7	60.6	0	1	0	0	0	60.3	55.0	0.0
2017 06/24 07:45	56.2	38.7	82.2	33.8	30.33	54.1	791.0	12.99	-40.0	0	-0.2	60.5	61.4	0	1	0	0	0	60.7	55.2	0.0
2017 06/24 08:00	57.0	33.8	83.8	32.8	30.33	54.1	796.0	12.98	-40.0	0	-0.2	61.4	62.4	0	1	0	0	0	61.2	55.6	0.0
2017 06/24 08:15	57.8	37.3	83.3	33.5	30.33	54.1	799.0	13.01	-40.0	0	-0.0	61.4	63.3	0	1	0	0	0	61.7	55.8	0.0
2017 06/24 08:30	57.3	35.7	76.9	31.4	30.33	54.1	803.0	13.01	-40.0	0	0.4	60.5	63.8	0	1	0	0	0	62.2	56.1	0.0
2017 06/24 08:45	57.7	33.9	98.2	34.5	30.33	54.1	806.0	12.99	-39.9	0	-0.3	62.3	64.5	0	1	0	0	0	62.5	56.6	0.0
2017 06/24 09:00	58.2	34.5	87.6	31.2	30.33	54.1	809.0	12.99	-40.1	0	0.0	62.3	65.0	0	1	0	0	0	63.1	57.2	0.0
2017 06/24 09:15	58.0	33.9	78.3	33.2	30.33	54.2	812.0	12.99	-39.9	0	0.6	61.4	65.2	0	1	0	0	0	63.6	58.2	0.0
2017 06/24 09:30	58.4	35.4	105.4	32.9	30.33	54.4	815.0	13.00	-40.0	0	0.3	62.3	65.9	0	1	0	0	0	64.2	59.1	0.0
2017 06/24 09:45	59.2	35.7	90.3	31.1	30.33	54.4	818.0	13.01	-39.9	0	0.3	62.3	66.3	0	1	0	0	0	64.9	59.9	0.0
2017 06/24 10:00	59.4	35.4	93.3	28.6	30.34	54.4	821.0	12.99	-40.0	0	0.5	62.3	66.7	0	1	0	0	0	65.5	60.6	0.0
2017 06/24 10:15	59.7	35.8	92.0	29.1	30.34	54.6	824.0	12.99	-40.0	0	0.9	62.3	67.5	0	1	0	0	0	65.8	61.2	0.0
2017 06/24 10:30	60.1	32.0	106.6	30.8	30.35	54.7	826.0	13.00	-39.9	0	0.5	63.2	68.1	0	1	0	0	0	66.7	62.3	0.0
2017 06/24 10:45	61.0	34.1	83.2	28.8	30.35	54.8	828.0	12.99	-40.0	0	0.3	63.2	68.5	0	1	0	0	0	67.6	63.0	0.0
2017 06/24 11:00	61.0	31.9	98.9	31.1	30.36	55.0	831.0	12.97	-40.0	0	0.5	64.1	69.5	0	1	0	0	0	68.5	64.2	0.0
2017 06/24 11:15	61.4	31.4	87.7	30.1	30.36	55.2	832.0	12.98	-39.9	0	1.0	65.9	71.1	0	1	0	0	0	69.5	64.9	0.0
2017 06/24 11:30	62.0	32.8	95.3	30.5	30.36	55.2	833.0	13.01	-40.0	0	0.3	66.8	72.4	0	1	0	0	0	70.9	65.8	0.0
2017 06/24 11:45	63.0	30.2	74.3	29.5	30.36	55.4	833.0	13.01	-40.0	0	0.2	68.6	72.9	0	1	0	0	0	72.2	66.9	0.0
2017 06/24 12:00	63.8	29.9	83.8	28.8	30.37	55.6	833.0	13.00	-40.0	0	0.4	68.6	73.0	0	1	0	0	0	73.7	67.8	0.0
2017 06/24 12:15	64.7	28.2	84.8	30.4	30.37	55.8	833.0	12.99	-40.0	0	0.6	70.4	74.6	0	1	0	0	0	74.7	68.4	0.0
2017 06/24 12:30	64.9	27.4	84.2	28.0	30.37	55.9	834.0	13.01	-40.0	0	0.4	71.3	75.0	0	1	0	0	0	75.9	69.2	0.0
2017 06/24 12:45	65.0	29.0	107.1	24.4	30.37	56.1	835.0	12.99	-40.0	0	0.3	70.4	75.4	0	1	0	0	0	77.3	69.6	0.0
2017 06/24 13:00	64.9	29.0	101.0	28.7	30.37	56.3	835.0	13.00	-40.0	0	0.4	71.3	76.5	0	1	0	0	0	78.0	70.5	0.0
2017 06/24 13:15	66.3	28.0	80.7	26.2	30.38	56.5	834.0	12.99	-39.9	0	0.5	72.2	77.4	0	1	0	0	0	78.6	71.0	0.0
2017 06/24 13:30	66.6	29.0	109.7	28.0	30.37	56.5	833.0	12.99	-40.0	0	0.4	71.3	76.9	0	1	0	0	0	79.5	71.7	0.0
2017 06/24 13:45	68.2	27.2	83.3	25.5	30.38	56.7	832.0	13.00	-40.0	0	0.9	73.1	78.0	0	1	0	0	0	80.3	71.8	0.0
2017 06/24 14:00	67.5	27.1	83.9	28.1	30.37	56.9	834.0	13.01	-40.0	0	0.4	72.2	78.0	0	1	0	0	0	80.8	72.0	0.0
2017 06/24 14:15	68.2	26.6	88.4	22.1	30.38	57.1	836.0	13.00	-39.9	0	0.4	72.2	79.0	0	1	0	0	0	81.2	72.0	0.0
2017 06/24 14:30	68.1	26.1	87.9	26.4	30.37	57.2	837.0	13.00	-39.9	0	1.1	73.1	79.1	0	1	0	0	0	81.3	72.0	0.0
2017 06/24 14:45	68.2	26.0	67.2	27.9	30.38	57.4	839.0	12.99	-40.0	0	0.8	74.0	81.0	0	1	0	0	0	81.7	72.1	0.0
2017 06/24 15:00	69.0	24.2	91.3	24.8	30.38	57.6	839.0	13.01	-40.0	0	0.2	73.1	80.7	0	1	0	0	0	82.0	72.1	0.0
2017 06/24 15:15	69.6	24.6	83.4	20.9	30.38	57.8	840.0	13.01	-40.0	0	0.3	74.9	81.1	0	1	0	0	0	82.6	72.0	0.0
2017 06/24 15:30	69.9	23.3	93.9	25.9	30.38	57.9	841.0	12.99	-39.9	0	0.4	74.9	82.3	0	1	0	0	0	83.0	71.9	0.0
2017 06/24 15:45	70.0	23.7	63.9	20.5	30.38	58.0	841.0	12.99	-40.0	0	0.6	74.0	81.9	0	1	0	0	0	83.5	72.0	0.0
2017 06/24 16:00	70.2	23.3	96.8	24.0	30.38	58.2	842.0	13.01	-40.0	0	0.9	74.0	82.1	0	1	0	0	0	83.9	71.9	0.0
2017 06/24 16:15	70.8	23.3	89.6	23.8	30.38	58.4	843.0	12.98	-40.0	0	0.7	74.0	82.1	0	1	0	0	0	84.3	72.0	0.0
2017 06/24 16:30	70.4	23.8	82.3	17.2	30.38	58.6	843.0	13.00	-40.0	0	0.6	74.9	82.3	0	1	0	0	0	84.7	71.9	0.0
2017 06/24 16:45	70.5	23.2	77.5	22.1	30.38	58.9	845.0	12.99	-39.9	0	0.1	74.0	82.8	0	1	0	0	0	85.3	72.0	0.0
2017 06/24 17:00	71.0	21.6	80.1	22.2	30.38	59.1	846.0	13.01	-40.0	0	0.4	74.0	83.5	0	1	0	0	0	86.0	72.1	0.0
2017 06/24 17:15	70.5	21.4	90.7	22.4	30.38	59.4	926.0	12.99	-39.9	0	0.9	74.0	83.2	0	1	0	0	0	86.4	72.0	0.0
2017 06/24 17:30	70.9	21.0	101.5	24.0	30.38	59.6	957.0	13.01	-40.0	0	0.6	74.0	83.0	0	1	0	0	0	86.3	72.0	0.0
2017 06/24 17:45	70.9	21.0	78.9	18.1	30.38	59.9	960.0	12.99	-40.0	0	0.2	74.0	84.0	0	1	0	0	0	86.4	72.0	0.0
2017 06/24 18:00	70.8	20.4	65.8	24.6	30.38	60.1	961.0	12.99	-40.0	0	0.1	74.0	83.6	0	1	0	0	0	86.4	72.0	0.0
2017 06/24 18:15	71.0	19.3	66.5	26.1	30.38	60.4	961.0	13.00	-39.9	0	-0.1	74.0	83.7	0	1	0	0	0	86.6	71.9	0.0
2017 06/24 18:30	70.8	19.7	84.6	24.2	30.38	60.7	828.0	12.99	-40.0	0	0.2	74.0	83.7	0	1	0	0	0	86.3	71.8	0.0
2017 06/24 18:45	71.0	21.6	88.9	21.3	30.38	60.9	832.0	13.00	-40.0	0	0.4	73.1	83.9	0	1	0	0	0	86.2	71.8	0.0
2017 06/24 19:00	71.0	20.8	70.8	23.3	30.39	61.2	904.0	12.99	-40.0	0	0.2	72.2	84.1	0	1	0	0	0	85.6	71.5	0.0
2017 06/24 19:15	70.6	22.3	74.6	22.5	30.39	61.6	943.0	12.99	-39.9	0	0.0	72.2	83.2	0	1	0	0	0	85.2	71.4	0.0
2017 06/24 19:30	70.6	22.1	72.3	26.0	30.39	61.8	961.0	13.00	-40.0	0	0.2	71.3	78.6	0	1	0	0	0	84.4	71.2	0.0
2017 06/24 19:45	70.1	22.7	82.7	24.1	30.39	62.0	959.0	12.99	-40.0	0	0.0	71.3	76.9	0	1	0	0	0	83.7	71.0	0.0
2017 06/24 20:00	69.8	22.7	87.3	27.4	30.39	62.3	957.0	12.97	-40.0	0	0.2	69.5	75.7	0	1	0	0	0	83.1	70.6	0.0
2017 06/24 20:15	68.9	24.5	71.1	28.8	30.39	62.5	953.0	12.99	-40.0	0	0.2	68.6	74.6	0	1	0	0	0	82.7	70.4	0.0
2017 06/24 20:30	67.6	24.8	71.8	29.3	30.39	62.7	941.0	13.00	-40.1	0	0.0	67.7	73.2	0	1	0	0	0	82.0	70.0	0.0
2017 06/24 20:45	67.0	25.1	56.8	30.6	30.40	63.0	910.0	12.99	-40.0	0	0.2	65.9	72.0	0	1	0	0	0	81.3	69.4	0.0
2017 06/24 21:00	66.4	25.6	73.8	29.9	30.40	63.1	513.6	13.00	-40.0	0	0.3	65.0	71.0	0	1	0	0	0	80.4	68.9	0.0
2017 06/24 21:15	66.1	26.0	66.3	31.4	30.40	63.3	263.6	13.01	-40.0	0	-0.2	64.1	70.3	0	1	0	0	0	79.1	68.5	0.0
2017 06/24 21:30	65.3	26.5	67.6	33.1	30.40	63.4	71.6	13.01	-40.0	0	0.4	64.1	69.7	0	1	0	0	0	77.2	68.2	0.0
2017 06/24 21:45	65.4	26.9	68.8	33.9	30.40	63.4	11.9	13.01	-40.0	0	0.2	63.2	69.3	0	1	0	0	0	76.2	67.7	0.0
2017 06/24 22:00	64.8	27.9	62.1	30.6	30.41	63.4	2.0	12.99	-40.0	0	0.5	63.2	69.0	0	1	0	0	0	75.0	67.3	0.0
2017 06/24 22:15	64.5	28.7	73.1	32.1	30.41	63.5	0.3	13.01	-40.0	0	0.6	63.2	69.0	0	1	0	0	0	74.5	67.0	0.0
2017 06/24 22:30	63.9	29.8	70.2	28.9	30.41	63.5	0.0	13.01	-40.0	0	0.2	63.2	68.7	0	1	0	0	0	73.6	66.7	0.0
2017 06/24 22:45	63.4	30.5	79.1	30.6	30.40	63.5	0.0	12.99	-40.0	0	0.4	62.3	67.7	0	1	0	0	0	72.6	66.1	0.0
2017 06/24 23:00	63.4	30.7	72.3	32.4	30.41	63.4	0.0	13.01	-39.9	0	0.1	61.4	66.9	0	1	0	0	0	72.0	65.8	0.0
2017 06/24 23:15	62.8	30.9	74.7	28.7	30.40	63.4	0.0	12.99	-40.0	0	0.4	61.4	66.1	0	1	0	0	0	71.9	65.5	0.0
2017 06/24 23:30	62.5	31.3	85.0	30.8	30.40	63.3	0.0	12.99	-39.9	0	0.2	60.5	65.6	0	1	0	0	0	71.3	65.3	0.0
2017 06/24 23:45	62.7	30.9	79.3	30.8	30.40	63.1	0.0	13.00	-40.0	0	-0.0	60.5	65.1	0	1	0	0	0	70.6	65.0	0.0
2017 06/25 00:00	62.5	30.8	72.7	29.3	30.39	63.0	0.0	13.00	-40.0	0	0.5	59.6	64.8	0	1	0	0	0	70.1	64.7	0.0
2017 06/25 00:15	62.3	30.7	83.5	28.9	30.39	62.9	-0.3	12.97	-40.1	0	0.5	59.6	64.7	0	1	0	0	0	69.8	64.6	0.0
2017 06/25 00:30	62.1	30.5	81.5	28.2	30.38	62.7	-0.3	13.02	-39.9	0	0.5	59.6	64.3	0	1	0	0	0	69.2	64.2	0.0
2017 06/25 00:45	62.0	30.2	81.5	28.7	30.38	62.5	-0.3	12.98	-40.1	0	0.3	59.6	64.1	0	1	0	0	0	68.6	63.9	0.0
2017 06/25 01:00	61.9	30.1	84.3	28.5	30.37	62.4	-0.3	12.98	-40.0	0	0.5	58.7	63.9	0	1	0	0	0	68.2	63.7	0.0
2017 06/25 01:15	61.4	30.2	84.2	28.4	30.37	62.2	0.0	12.98	-39.9	0	0.5	58.7	63.6	0	1	0	0	0	67.6	63.3	0.0
2017 06/25 01:30	62.1	29.5	86.4	30.5	30.37	62.0	-0.3	12.99	-40.0	0	0.4	58.7	63.6	0	1	0	0	0	67.2	63.1	0.0
2017 06/25 01:45	62.0	29.2	89.8	30.5	30.36	61.9	-0.3	13.00	-40.0	0	0.6	58.7	63.2	0	1	0	0	0	66.7	62.8	0.0
2017 06/25 02:00	61.6	29.7	86.7	28.9	30.35	61.7	0.0	12.99	-40.0	0	0.5	59.6	63.1	0	1	0	0	0	66.1	62.4	0.0
2017 06/25 02:15	61.4	29.9	87.6	29.4	30.35	61.6	0.0	12.99	-40.0	0	0.5	58.7	63.1	0	1	0	0	0	66.0	62.2	0.0
2017 06/25 02:30	61.7	30.1	90.8	28.2	30.34	61.4	0.0	13.01	-40.0	0	0.0	58.7	63.1	0	1	0	0	0	65.7	61.9	0.0
2017 06/25 02:45	61.6	30.3	89.2	28.9	30.34	61.2	0.0	12.99	-40.0	0	0.4	58.7	62.9	0	1	0	0	0	65.3	61.7	0.0
2017 06/25 03:00	61.5	30.9	87.2	29.3	30.33	61.0	-0.3	13.00	-40.0	0	0.5	58.7	63.0	0	1	0	0	0	65.0	61.4	0.0
2017 06/25 03:15	62.0	31.3	93.5	28.6	30.33	60.8	-0.3	12.97	-40.0	0	0.5	58.7	63.0	0	1	0	0	0	64.8	61.2	0.0
2017 06/25 03:30	62.0	31.6	94.3	26.5	30.33	60.7	0.0	13.01	-40.0	0	0.3	59.6	63.0	0	1	0	0	0	64.5	61.0	0.0
2017 06/25 03:45	62.4	32.2	95.1	28.9	30.32	60.6	0.0	12.99	-40.0	0	-0.0	59.6	63.8	0	1	0	0	0	64.0	60.6	0.0
2017 06/25 04:00	62.1	31.7	92.6	25.6	30.32	60.4	0.0	12.99	-40.0	0	0.4	60.5	64.0	0	1	0	0	0	63.7	60.4	0.0
2017 06/25 04:15	62.1	32.2	94.3	26.8	30.32	60.3	0.0	13.00	-39.9	0	0.6	59.6	63.4	0	1	0	0	0	63.5	60.3	0.0
2017 06/25 04:30	61.7	32.2	88.0	27.3	30.31	60.1	0.3	13.01	-40.0	0	0.5	58.7	63.2	0	1	0	0	0	63.1	60.0	0.0
2017 06/25 04:45	61.5	33.3	93.3	28.0	30.31	59.9	3.1	12.99	-40.0	0	0.5	58.7	62.9	0	1	0	0	0	62.8	59.9	0.0
2017 06/25 05:00	61.6	33.1	91.1	26.6	30.31	59.8	27.1	13.00	-40.0	0	0.3	58.7	62.7	0	1	0	0	0	62.4	59.5	0.0
2017 06/25 05:15	61.6	33.0	94.2	25.8	30.31	59.7	170.0	12.99	-40.0	0	0.5	58.7	62.8	0	1	0	0	0	62.1	59.4	0.0
2017 06/25 05:30	62.0	32.6	93.6	25.1	30.30	59.5	418.7	12.99	-40.0	0	0.3	58.7	62.7	0	1	0	0	0	61.7	59.2	0.0
2017 06/25 05:45	61.7	31.8	91.1	26.1	30.30	59.5	580.2	12.98	-40.1	0	0.4	59.6	63.2	0	1	0	0	0	61.5	59.0	0.0
2017 06/25 06:00	62.1	32.4	94.8	25.2	30.30	59.3	669.7	13.00	-39.9	0	0.4	60.5	63.4	0	1	0	0	0	61.2	58.6	0.0
2017 06/25 06:15	62.4	31.6	91.0	27.5	30.30	59.2	721.0	13.00	-40.0	0	0.1	61.4	63.4	0	1	0	0	0	61.1	58.5	0.0
2017 06/25 06:30	62.2	32.8	87.1	26.0	30.29	59.1	746.0	12.99	-40.0	0	-0.2	62.3	63.6	0	1	0	0	0	61.1	58.4	0.0
2017 06/25 06:45	62.7	31.4	94.8	25.6	30.29	59.0	760.0	12.99	-40.1	0	-0.5	63.2	63.9	0	1	0	0	0	61.0	58.2	0.0
2017 06/25 07:00	61.9	32.1	101.3	24.4	30.29	58.9	767.0	12.99	-40.1	0	-0.2	63.2	64.5	0	1	0	0	0	61.7	58.0	0.0
2017 06/25 07:15	63.1	30.5	102.7	26.4	30.29	58.9	778.0	13.01	-39.9	0	-0.2	63.2	64.9	0	1	0	0	0	61.8	58.0	0.0
2017 06/25 07:30	63.0	31.8	91.5	24.9	30.30	58.9	786.0	13.01	-40.1	0	-0.4	63.2	65.5	0	1	0	0	0	62.3	58.0	0.0
2017 06/25 07:45	63.8	30.5	92.2	25.3	30.29	58.9	791.0	13.01	-40.0	0	-0.5	65.0	66.3	0	1	0	0	0	63.1	58.3	0.0
2017 06/25 08:00	63.8	31.7	87.6	24.7	30.30	58.9	797.0	13.02	-40.0	0	-0.3	65.9	66.8	0	1	0	0	0	63.9	58.5	0.0
2017 06/25 08:15	63.5	32.6	100.5	24.2	30.30	59.0	800.0	12.98	-40.0	0	0.0	65.9	67.4	0	1	0	0	0	64.4	58.7	0.0
2017 06/25 08:30	64.7	33.8	97.2	20.8	30.30	59.1	804.0	13.00	-40.0	0	0.2	65.9	68.2	0	1	0	0	0	65.4	59.3	0.0
2017 06/25 08:45	64.7	32.6	79.7	20.4	30.30	59.1	807.0	12.99	-40.1	0	0.2	67.7	68.7	0	1	0	0	0	66.1	59.7	0.0
2017 06/25 09:00	65.5	30.9	88.9	20.6	30.30	59.2	811.0	13.00	-40.0	0	-0.4	67.7	70.2	0	1	0	0	0	67.6	60.2	0.0
2017 06/25 09:15	65.9	32.2	86.5	19.4	30.30	59.3	814.0	13.01	-40.0	0	0.2	67.7	70.6	0	1	0	0	0	68.5	60.6	0.0
2017 06/25 09:30	66.9	31.7	94.2	15.2	30.31	59.4	816.0	12.99	-39.9	0	0.6	69.5	71.5	0	1	0	0	0	69.8	61.3	0.0
2017 06/25 09:45	66.6	32.3	94.2	16.6	30.31	59.5	820.0	12.99	-40.0	0	-0.2	69.5	72.3	0	1	0	0	0	70.4	62.0	0.0
2017 06/25 10:00	66.6	33.3	73.7	13.2	30.30	59.7	828.0	13.00	-40.0	0	0.6	68.6	73.2	0	1	0	0	0	71.5	62.7	0.0
2017 06/25 10:15	67.0	31.6	78.4	16.1	30.30	59.7	831.0	12.99	-39.9	0	0.8	68.6	73.6	0	1	0	0	0	71.8	63.1	0.0
2017 06/25 10:30	67.5	32.3	99.8	14.4	30.31	59.9	828.0	13.00	-40.0	0	0.7	69.5	74.6	0	1	0	0	0	72.9	63.9	0.0
2017 06/25 10:45	67.7	33.3	87.8	12.9	30.31	59.9	832.0	12.99	-40.1	0	0.4	70.4	76.0	0	1	0	0	0	73.7	64.9	0.0
2017 06/25 11:00	70.0	31.5	77.7	11.4	30.31	60.1	833.0	13.01	-40.0	0	1.3	72.2	75.8	0	1	0	0	0	74.6	66.1	0.0
2017 06/25 11:15	70.4	30.7	80.5	13.2	30.32	60.4	834.0	13.02	-39.9	0	0.2	72.2	77.1	0	1	0	0	0	75.0	67.2	0.0
2017 06/25 11:30	71.9	30.9	84.5	11.8	30.32	60.6	837.0	12.99	-40.0	0	0.5	74.9	78.0	0	1	0	0	0	76.2	68.5	0.0
2017 06/25 11:45	71.3	31.2	63.6	12.7	30.32	60.7	839.0	13.01	-40.0	0	0.4	75.8	77.6	0	1	0	0	0	77.0	69.6	0.0
2017 06/25 12:00	71.9	31.4	65.1	13.7	30.32	61.0	842.0	12.99	-40.0	0	-0.3	76.7	80.4	0	1	0	0	0	78.5	70.5	0.0
2017 06/25 12:15	72.6	31.1	87.1	13.4	30.33	61.2	841.0	12.99	-40.0	0	0.3	76.7	80.4	0	1	0	0	0	79.5	71.3	0.0
2017 06/25 12:30	74.4	30.7	105.2	12.0	30.32	61.3	844.0	12.99	-40.0	0	-0.1	77.6	81.1	0	1	0	0	0	80.7	72.0	0.0
2017 06/25 12:45	73.8	31.3	85.3	11.9	30.33	61.6	847.0	12.99	-40.1	0	0.4	79.4	83.6	0	1	0	0	0	81.7	73.0	0.0
2017 06/25 13:00	74.4	30.7	91.5	14.7	30.33	61.8	849.0	13.01	-40.0	0	-0.2	80.3	82.6	0	1	0	0	0	83.1	73.8	0.0
2017 06/25 13:15	74.9	30.2	74.3	13.5	30.33	62.0	850.0	13.02	-39.9	0	0.0	79.4	84.4	0	1	0	0	0	83.9	74.4	0.0
2017 06/25 13:30	76.3	29.9	67.8	12.8	30.33	62.2	852.0	13.03	-39.9	0	0.0	80.3	85.6	0	1	0	0	0	84.8	75.0	0.0
2017 06/25 13:45	76.9	28.8	89.9	13.5	30.33	62.4	853.0	12.99	-40.0	0	-0.4	82.1	87.0	0	1	0	0	0	85.8	75.4	0.0
2017 06/25 14:00	77.0	29.7	82.2	10.9	30.33	62.6	857.0	13.00	-40.0	0	0.0	83.0	87.2	0	1	0	0	0	86.6	75.7	0.0
2017 06/25 14:15	77.5	27.4	76.8	10.5	30.33	62.9	855.0	13.02	-40.0	0	0.4	82.1	86.8	0	1	0	0	0	87.2	75.9	0.0
2017 06/25 14:30	78.1	28.1	96.7	11.8	30.34	63.2	861.0	12.99	-40.0	0	0.1	83.0	87.6	0	1	0	0	0	87.8	75.8	0.0
2017 06/25 14:45	78.7	26.7	89.8	11.1	30.33	63.4	858.0	13.03	-39.9	0	0.2	83.0	89.0	0	1	0	0	0	88.3	75.8	0.0
2017 06/25 15:00	79.7	26.2	100.3	12.1	30.33	63.6	874.0	12.99	-40.0	0	-0.5	84.8	89.9	0	1	0	0	0	88.8	75.8	0.0
2017 06/25 15:15	79.8	26.4	93.3	13.9	30.33	63.9	877.0	13.01	-40.0	0	-0.2	83.9	90.2	0	1	0	0	0	89.1	75.9	0.0
2017 06/25 15:30	79.7	26.0	91.2	14.9	30.33	64.1	883.0	13.02	-40.0	0	0.1	83.9	90.2	0	1	0	0	0	89.8	75.9	0.0
2017 06/25 15:45	79.5	26.4	66.2	10.6	30.33	64.3	880.0	13.01	-40.0	0	-0.1	83.9	88.4	0	1	0	0	0	90.2	75.9	0.0
2017 06/25 16:00	79.5	27.5	102.9	9.5	30.33	64.6	887.0	12.99	-40.0	0	0.1	82.1	90.1	0	1	0	0	0	90.5	76.0	0.0
2017 06/25 16:15	78.4	25.8	131.6	8.2	30.33	64.9	874.0	12.99	-40.0	0	-0.5	83.0	88.1	0	1	0	0	0	90.7	76.0	0.0
2017 06/25 16:30	79.2	27.1	129.4	7.7	30.33	65.2	879.0	12.99	-40.0	0	-0.3	82.1	87.3	0	1	0	0	0	90.7	76.0	0.0
2017 06/25 16:45	79.0	26.9	108.1	4.2	30.33	65.5	870.0	13.01	-39.9	0	-0.1	82.1	87.2	0	1	0	0	0	90.9	75.9	0.0
2017 06/25 17:00	79.7	27.7	74.2	4.7	30.33	65.9	853.0	13.01	-39.9	0	-0.3	81.2	85.9	0	1	0	0	0	90.8	75.9	0.0
2017 06/25 17:15	78.6	31.2	262.6	6.6	30.33	66.2	852.0	13.00	-39.9	0	-0.6	80.3	85.8	0	1	0	0	0	90.7	75.9	0.0
2017 06/25 17:30	78.3	32.8	293.8	5.2	30.34	66.5	801.0	13.01	-40.0	0	-0.6	78.5	84.0	0	1	0	0	0	90.3	75.8	0.0
2017 06/25 17:45	75.6	31.7	255.5	13.2	30.35	66.8	737.0	13.00	-40.0	0	-0.7	76.7	82.0	0	1	0	0	0	90.0	75.6	0.0
2017 06/25 18:00	73.7	31.0	274.2	18.2	30.36	67.2	660.0	13.00	-40.0	0	0.2	74.0	79.9	0	1	0	0	0	89.3	75.4	0.0
2017 06/25 18:15	72.3	33.7	244.4	12.2	30.37	67.4	600.0	13.02	-39.9	0	-0.2	73.1	78.7	0	1	0	0	0	88.9	75.0	0.0
2017 06/25 18:30	72.1	31.3	236.0	18.2	30.37	67.7	654.9	13.03	-40.0	0	0.1	72.2	77.5	0	1	0	0	0	88.1	74.6	0.0
2017 06/25 18:45	71.2	34.7	230.4	18.6	30.36	68.0	729.0	13.02	-40.0	0	-0.1	69.5	74.4	0	1	0	0	0	87.2	74.3	0.0
2017 06/25 19:00	75.4	24.6	310.4	3.8	30.36	68.2	753.0	13.01	-40.0	0	0.2	70.4	72.3	0	1	0	0	0	86.1	74.0	0.0
2017 06/25 19:15	70.9	38.0	141.7	24.5	30.38	68.4	749.0	12.99	-39.9	0	0.3	71.3	74.4	0	1	0	0	0	85.4	73.8	0.0
2017 06/25 19:30	73.1	30.9	106.3	19.3	30.40	68.6	752.0	13.01	-40.0	0	0.4	70.4	75.1	0	1	0	0	0	84.8	73.4	0.0
2017 06/25 19:45	71.6	31.3	83.3	16.1	30.39	68.7	789.0	13.02	-40.0	0	0.4	71.3	75.6	0	1	0	0	0	84.3	73.0	0.0
2017 06/25 20:00	71.5	32.4	75.8	12.7	30.39	68.8	838.0	13.00	-40.1	0	0.1	69.5	74.7	0	1	0	0	0	83.9	72.8	0.0
2017 06/25 20:15	72.2	30.3	124.5	13.5	30.39	68.9	794.0	12.99	-40.0	0	0.0	69.5	73.7	0	1	0	0	0	83.6	72.6	0.0
2017 06/25 20:30	71.4	32.3	106.4	12.4	30.39	68.9	686.5	13.02	-40.1	0	0.2	68.6	72.8	0	1	0	0	0	83.0	72.3	0.0
2017 06/25 20:45	70.5	33.0	131.6	3.8	30.38	68.9	758.0	13.01	-40.0	0	-0.8	67.7	71.3	0	1	0	0	0	82.5	72.1	0.0
2017 06/25 21:00	70.9	32.3	142.4	4.7	30.38	69.0	139.1	13.01	-40.0	0	0.2	67.7	70.0	0	1	0	0	0	81.9	71.8	0.0
2017 06/25 21:15	71.6	31.5	208.1	7.9	30.38	69.0	16.3	13.01	-39.9	0	-0.2	68.6	69.5	0	1	0	0	0	81.6	71.5	0.0
2017 06/25 21:30	70.7	36.4	218.0	13.8	30.38	69.0	3.1	12.99	-40.0	0	-0.3	68.6	68.7	0	1	0	0	0	81.0	71.3	0.0
2017 06/25 21:45	70.6	38.0	322.0	5.4	30.39	69.0	0.3	13.01	-40.0	0	-0.6	68.6	68.8	0	1	0	0	0	80.5	71.1	0.0
2017 06/25 22:00	67.7	53.4	249.7	8.0	30.42	69.1	0.0	13.02	-40.0	0	0.3	67.7	72.7	0	1	0	0	0	80.1	70.8	0.0
2017 06/25 22:15	65.7	51.3	252.8	13.8	30.41	69.0	0.0	13.03	-39.9	0	-0.5	66.8	71.9	0	1	0	0	0	79.9	70.5	0.0
2017 06/25 22:30	64.9	54.6	232.2	9.4	30.42	69.0	0.0	13.00	-40.1	0	0.2	65.9	70.5	0	1	0	0	0	79.4	70.3	0.0
2017 06/25 22:45	63.8	63.9	229.4	16.7	30.42	68.9	0.0	13.02	-39.9	0	0.1	64.1	69.7	0	1	0	0	0	79.2	70.2	0.0
2017 06/25 23:00	63.3	63.8	276.3	7.8	30.40	68.9	0.0	12.99	-40.1	0	0.2	63.2	69.2	0	1	0	0	0	78.8	70.1	0.0
2017 06/25 23:15	63.7	59.0	334.0	2.6	30.39	68.9	0.0	13.01	-40.0	0	0.1	63.2	68.6	0	1	0	0	0	78.5	70.0	0.0
2017 06/25 23:30	66.2	46.8	116.1	14.9	30.38	68.9	-0.3	12.99	-40.0	0	0.2	62.3	67.6	0	1	0	0	0	78.1	69.8	0.0
2017 06/25 23:45	67.0	42.5	119.4	16.2	30.37	68.8	0.0	12.99	-40.0	0	-0.3	62.3	66.8	0	1	0	0	0	77.7	69.6	0.0
2017 06/26 00:00	69.8	34.4	122.5	20.2	30.35	68.7	0.0	13.00	-40.1	0	0.2	62.3	66.4	0	1	0	0	0	77.4	69.4	0.0
2017 06/26 00:15	70.7	32.0	136.4	33.8	30.35	68.6	-0.3	13.01	-40.0	0	0.6	65.0	65.8	0	1	0	0	0	77.2	69.3	0.0
2017 06/26 00:30	68.2	38.4	118.8	18.5	30.34	68.4	0.0	13.03	-40.0	0	0.5	64.1	65.4	0	1	0	0	0	76.8	69.1	0.0
2017 06/26 00:45	68.9	34.8	172.8	21.9	30.34	68.3	0.0	13.03	-39.9	0	0.3	65.0	68.2	0	1	0	0	0	76.5	69.0	0.0
2017 06/26 01:00	68.2	38.9	84.9	15.8	30.32	68.1	-0.3	13.00	-39.9	0	0.5	64.1	67.2	0	1	0	0	0	76.2	68.7	0.0
2017 06/26 01:15	68.8	33.6	108.5	12.1	30.33	68.0	-0.3	13.02	-40.0	0	0.3	65.0	66.8	0	1	0	0	0	75.8	68.6	0.0
2017 06/26 01:30	67.9	38.9	119.2	2.7	30.32	67.8	0.0	13.02	-40.0	0	0.2	65.0	65.9	0	1	0	0	0	75.5	68.4	0.0
2017 06/26 01:45	68.2	44.8	243.8	8.0	30.31	67.6	-0.3	13.01	-40.0	0	0.2	65.0	66.6	0	1	0	0	0	75.1	68.3	0.0
2017 06/26 02:00	64.3	52.7	224.8	18.6	30.30	67.5	0.0	12.99	-40.0	0	0.2	63.2	67.0	0	1	0	0	0	74.8	68.1	0.0
2017 06/26 02:15	64.5	52.8	230.2	21.9	30.30	67.4	-0.3	13.00	-40.0	0	0.3	62.3	66.5	0	1	0	0	0	74.8	68.0	0.0
2017 06/26 02:30	62.6	57.8	223.8	22.1	30.30	67.2	-0.3	13.01	-40.0	0	0.1	62.3	66.0	0	1	0	0	0	74.5	67.8	0.0
2017 06/26 02:45	63.4	51.5	213.7	23.6	30.30	67.2	-0.3	13.01	-40.0	0	0.3	61.4	65.6	0	1	0	0	0	74.1	67.6	0.0
2017 06/26 03:00	63.0	52.8	224.8	21.6	30.30	66.9	0.0	13.01	-40.0	0	0.2	61.4	66.0	0	1	0	0	0	73.8	67.4	0.0
2017 06/26 03:15	62.9	52.7	222.7	23.2	30.29	66.9	0.0	12.99	-39.9	0	0.4	60.5	64.9	0	1	0	0	0	73.6	67.3	0.0
2017 06/26 03:30	61.3	59.2	237.1	19.2	30.29	66.7	0.0	13.01	-40.0	0	0.2	60.5	63.3	0	1	0	0	0	73.1	67.2	0.0
2017 06/26 03:45	61.0	61.3	240.2	21.1	30.29	66.6	0.0	13.02	-39.9	0	0.3	59.6	63.3	0	1	0	0	0	72.9	66.9	0.0
2017 06/26 04:00	61.1	61.0	247.0	19.4	30.29	66.5	0.0	13.01	-40.0	0	0.2	59.6	63.2	0	1	0	0	0	72.6	66.7	0.0
2017 06/26 04:15	60.9	62.7	232.4	18.7	30.29	66.3	0.0	13.01	-40.0	0	0.3	59.6	60.6	0	1	0	0	0	72.2	66.7	0.0
2017 06/26 04:30	61.6	59.1	266.0	17.8	30.28	66.2	0.0	12.99	-40.0	0	0.2	58.7	61.9	0	1	0	0	0	72.0	66.5	0.0
2017 06/26 04:45	61.0	62.3	264.6	16.9	30.27	66.1	1.4	13.01	-39.9	0	-0.1	57.8	60.0	0	1	0	0	0	71.7	66.3	0.0
2017 06/26 05:00	59.5	67.8	271.3	17.4	30.27	65.9	12.2	13.00	-39.9	0	0.4	56.0	61.0	0	1	0	0	0	71.3	66.1	0.0
2017 06/26 05:15	59.6	67.4	272.4	12.4	30.27	65.8	92.3	13.01	-40.0	0	0.6	56.0	61.6	0	1	0	0	0	71.1	66.0	0.0
2017 06/26 05:30	60.0	66.3	271.5	17.3	30.27	65.7	264.9	13.01	-39.9	0	0.6	56.0	62.0	0	1	0	0	0	70.8	65.8	0.0
2017 06/26 05:45	60.0	65.9	268.1	15.3	30.27	65.5	492.1	12.99	-40.0	0	0.2	56.9	62.1	0	1	0	0	0	70.4	65.6	0.0
2017 06/26 06:00	60.3	66.7	269.7	17.3	30.27	65.3	643.5	13.01	-39.9	0	0.1	58.7	63.1	0	1	0	0	0	70.2	65.5	0.0
2017 06/26 06:15	60.2	66.1	270.5	13.5	30.27	65.1	708.0	13.00	-39.9	0	-0.2	59.6	63.6	0	1	0	0	0	70.0	65.4	0.0
2017 06/26 06:30	61.0	64.4	259.6	13.2	30.27	65.1	737.0	13.02	-40.0	0	0.0	61.4	64.3	0	1	0	0	0	69.9	65.1	0.0
2017 06/26 06:45	60.9	63.8	254.7	12.1	30.27	65.0	735.0	13.03	-39.9	0	-0.1	62.3	64.9	0	1	0	0	0	69.8	65.0	0.0
2017 06/26 07:00	61.0	63.5	254.2	8.2	30.28	64.8	736.0	13.03	-40.0	0	-0.1	63.2	65.1	0	1	0	0	0	69.4	64.9	0.0
2017 06/26 07:15	61.1	63.1	232.5	12.2	30.28	64.7	722.0	13.00	-39.9	0	-0.2	63.2	63.9	0	1	0	0	0	69.3	64.8	0.0
2017 06/26 07:30	61.5	62.8	244.8	9.8	30.27	64.6	784.0	13.00	-40.0	0	-0.2	64.1	65.7	0	1	0	0	0	69.3	64.7	0.0
2017 06/26 07:45	61.7	64.0	249.1	10.1	30.27	64.5	791.0	13.01	-39.9	0	-0.1	65.0	67.8	0	1	0	0	0	69.4	64.7	0.0
2017 06/26 08:00	61.6	64.2	242.3	7.7	30.28	64.5	808.0	12.99	-40.0	0	-0.1	66.8	68.1	0	1	0	0	0	69.8	64.7	0.0
2017 06/26 08:15	62.2	64.3	248.3	6.1	30.28	64.5	813.0	13.01	-40.0	0	-0.5	67.7	68.6	0	1	0	0	0	70.0	64.8	0.0
2017 06/26 08:30	63.1	65.5	242.0	4.9	30.28	64.5	823.0	12.99	-40.0	0	0.1	65.0	68.7	0	1	0	0	0	70.3	65.0	0.0
2017 06/26 08:45	62.5	64.9	236.2	8.2	30.28	64.4	820.0	13.01	-40.0	0	-0.7	66.8	69.2	0	1	0	0	0	70.6	65.1	0.0
2017 06/26 09:00	63.9	63.4	230.4	7.3	30.28	64.5	818.0	13.01	-40.1	0	-0.2	68.6	70.5	0	1	0	0	0	71.4	65.5	0.0
2017 06/26 09:15	65.1	61.6	243.4	6.0	30.28	64.5	818.0	13.00	-39.9	0	0.4	67.7	70.8	0	1	0	0	0	72.0	65.7	0.0
2017 06/26 09:30	65.1	58.1	221.7	6.9	30.27	64.6	820.0	13.00	-39.9	0	-0.2	70.4	71.2	0	1	0	0	0	72.7	66.0	0.0
2017 06/26 09:45	66.0	58.7	217.9	6.0	30.27	64.7	822.0	13.00	-40.0	0	0.6	70.4	71.5	0	1	0	0	0	73.5	66.5	0.0
2017 06/26 10:00	66.4	57.6	259.8	8.0	30.28	64.7	824.0	13.00	-40.1	0	0.2	69.5	73.2	0	1	0	0	0	74.3	66.9	0.0
2017 06/26 10:15	65.6	55.8	237.1	9.3	30.27	64.8	827.0	13.01	-40.0	0	0.4	69.5	73.1	0	1	0	0	0	74.9	67.3	0.0
2017 06/26 10:30	65.5	57.4	225.5	8.1	30.27	64.9	830.0	12.99	-39.9	0	0.2	68.6	73.8	0	1	0	0	0	76.0	67.8	0.0
2017 06/26 10:45	66.3	59.6	226.3	8.1	30.28	65.0	832.0	13.03	-40.0	0	0.4	70.4	74.4	0	1	0	0	0	77.1	68.4	0.0
2017 06/26 11:00	66.2	58.5	232.5	10.9	30.28	65.1	834.0	13.00	-40.0	0	0.6	70.4	75.1	0	1	0	0	0	78.1	69.4	0.0
2017 06/26 11:15	67.4	57.2	246.6	8.1	30.28	65.3	837.0	13.02	-40.0	0	0.9	70.4	74.9	0	1	0	0	0	78.9	70.2	0.0
2017 06/26 11:30	67.6	58.6	271.6	10.1	30.28	65.4	842.0	13.00	-40.0	0	-1.2	71.3	75.9	0	1	0	0	0	79.9	71.0	0.0
2017 06/26 11:45	68.5	59.3	211.9	6.6	30.28	65.6	848.0	12.99	-40.0	0	0.4	71.3	75.0	0	1	0	0	0	81.0	72.0	0.0
2017 06/26 12:00	69.0	60.1	270.8	15.5	30.28	65.8	859.0	13.02	-40.0	0	0.2	71.3	74.8	0	1	0	0	0	82.0	72.9	0.0
2017 06/26 12:15	67.1	57.3	230.5	18.5	30.28	65.9	861.0	13.00	-40.1	0	0.8	72.2	76.2	0	1	0	0	0	82.7	73.1	0.0
2017 06/26 12:30	68.8	53.6	225.2	15.8	30.28	66.1	861.0	13.01	-40.0	0	0.1	72.2	78.4	0	1	0	0	0	83.5	73.9	0.0
2017 06/26 12:45	66.3	56.6	236.1	17.4	30.29	66.2	849.0	13.01	-40.0	0	-0.2	71.3	77.4	0	1	0	0	0	84.4	74.5	0.0
2017 06/26 13:00	69.6	55.8	281.5	10.9	30.29	66.4	863.0	13.00	-40.0	0	0.2	72.2	76.3	0	1	0	0	0	85.0	74.9	0.0
2017 06/26 13:15	67.0	60.3	271.4	16.8	30.28	66.6	856.0	12.99	-39.9	0	0.2	71.3	77.3	0	1	0	0	0	85.5	75.3	0.0
2017 06/26 13:30	68.7	58.8	201.8	8.8	30.28	66.7	855.0	13.02	-40.0	0	1.0	71.3	76.6	0	1	0	0	0	86.1	75.7	0.0
2017 06/26 13:45	68.5	48.9	270.8	19.5	30.28	66.9	859.0	13.01	-40.0	0	0.6	72.2	78.2	0	1	0	0	0	86.7	75.9	0.0
2017 06/26 14:00	67.3	59.1	258.4	23.1	30.28	67.1	840.0	12.99	-40.0	0	0.6	73.1	76.5	0	1	0	0	0	86.9	76.0	0.0
2017 06/26 14:15	68.7	55.3	245.8	18.4	30.28	67.3	856.0	13.01	-40.0	0	0.9	72.2	79.0	0	1	0	0	0	87.0	76.0	0.0
2017 06/26 14:30	68.4	56.6	244.4	20.8	30.28	67.4	856.0	13.03	-40.0	0	0.2	73.1	77.6	0	1	0	0	0	87.1	75.8	0.0
2017 06/26 14:45	67.6	58.1	251.1	17.8	30.28	67.6	856.0	13.03	-39.9	0	0.6	72.2	76.9	0	1	0	0	0	87.1	75.6	0.0
2017 06/26 15:00	68.2	58.0	234.1	17.4	30.29	67.8	867.0	12.99	-40.0	0	0.4	71.3	76.5	0	1	0	0	0	87.1	75.4	0.0
2017 06/26 15:15	67.4	53.3	244.6	11.4	30.29	67.9	853.0	13.00	-40.0	0	0.6	70.4	76.8	0	1	0	0	0	87.1	75.3	0.0
2017 06/26 15:30	67.1	45.0	244.1	20.0	30.28	68.0	852.0	12.99	-40.0	0	0.6	70.4	78.4	0	1	0	0	0	87.4	74.9	0.0
2017 06/26 15:45	68.7	53.6	299.3	13.7	30.29	68.2	853.0	12.99	-40.0	0	0.3	70.4	76.0	0	1	0	0	0	87.6	74.7	0.0
2017 06/26 16:00	66.3	52.0	301.7	15.7	30.29	68.4	855.0	13.01	-40.0	0	0.6	69.5	75.7	0	1	0	0	0	87.9	74.5	0.0
2017 06/26 16:15	67.0	55.3	264.7	15.9	30.28	68.5	854.0	13.01	-39.9	0	-0.0	68.6	74.6	0	1	0	0	0	88.1	74.3	0.0
2017 06/26 16:30	66.7	55.6	282.0	10.9	30.28	68.7	855.0	13.03	-40.0	0	0.1	66.8	74.0	0	1	0	0	0	88.2	73.9	0.0
2017 06/26 16:45	64.3	60.5	304.2	12.1	30.28	68.9	858.0	13.00	-40.0	0	0.6	67.7	73.3	0	1	0	0	0	88.3	73.8	0.0
2017 06/26 17:00	63.3	60.6	257.0	19.1	30.28	69.1	861.0	12.99	-40.0	0	0.5	66.8	73.7	0	1	0	0	0	88.2	73.7	0.0
2017 06/26 17:15	64.8	56.8	270.8	13.4	30.29	69.3	924.0	13.01	-40.0	0	0.2	65.9	73.3	0	1	0	0	0	88.4	73.6	0.0
2017 06/26 17:30	62.7	59.4	274.6	23.8	30.28	69.5	955.0	12.99	-40.1	0	0.0	65.9	74.0	0	1	0	0	0	88.3	73.4	0.0
2017 06/26 17:45	61.5	64.2	307.8	16.8	30.30	69.7	960.0	12.99	-40.0	0	0.5	64.1	73.7	0	1	0	0	0	88.5	73.1	0.0
2017 06/26 18:00	61.1	65.0	308.6	15.7	30.29	69.9	960.0	13.01	-40.1	0	0.4	64.1	71.4	0	1	0	0	0	88.3	73.0	0.0
2017 06/26 18:15	60.7	66.3	268.7	16.5	30.30	70.2	961.0	13.02	-40.0	0	-0.2	63.2	72.4	0	1	0	0	0	88.4	72.8	0.0
2017 06/26 18:30	60.6	66.7	282.9	14.6	30.31	70.4	863.0	13.02	-40.0	0	0.6	62.3	70.6	0	1	0	0	0	88.1	72.7	0.0
2017 06/26 18:45	60.6	67.7	171.6	12.8	30.32	70.6	868.0	13.02	-40.0	0	-0.0	61.4	70.5	0	1	0	0	0	87.4	72.3	0.0
2017 06/26 19:00	59.5	70.5	182.0	16.6	30.32	70.8	880.0	13.00	-40.0	0	0.2	59.6	69.4	0	1	0	0	0	87.0	72.1	0.0
2017 06/26 19:15	58.5	73.1	254.8	12.6	30.33	71.0	943.0	13.02	-40.0	0	-0.9	59.6	68.8	0	1	0	0	0	86.4	72.0	0.0
2017 06/26 19:30	57.7	77.1	287.2	10.8	30.33	71.2	957.0	13.00	-40.0	0	0.0	58.7	65.4	0	1	0	0	0	85.8	71.8	0.0
2017 06/26 19:45	55.7	82.4	247.0	13.8	30.33	71.4	954.0	13.01	-40.0	0	-0.7	57.8	62.5	0	1	0	0	0	85.2	71.3	0.0
2017 06/26 20:00	54.9	84.5	322.3	16.0	30.32	71.5	941.0	12.98	-39.9	0	0.0	55.1	62.4	0	1	0	0	0	84.4	71.0	0.0
2017 06/26 20:15	53.9	87.8	309.2	10.0	30.33	71.6	932.0	13.00	-39.9	0	0.1	54.2	61.4	0	1	0	0	0	83.7	70.6	0.0
2017 06/26 20:30	52.2	92.0	290.1	10.0	30.34	71.8	757.0	13.00	-39.9	0	0.2	53.3	61.0	0	1	0	0	0	82.8	70.3	0.0
2017 06/26 20:45	51.9	95.3	258.4	13.5	30.33	71.9	847.0	13.00	-40.0	0	0.2	52.4	59.6	0	1	0	0	0	81.9	70.0	0.0
2017 06/26 21:00	50.4	97.6	243.3	13.1	30.33	71.9	399.2	13.02	-40.1	0	0.3	51.5	59.6	0	1	0	0	0	81.0	69.6	0.0
2017 06/26 21:15	50.4	99.0	279.4	11.4	30.33	71.9	103.1	13.02	-40.0	0	0.3	50.6	58.7	0	1	0	0	0	80.3	69.4	0.0
2017 06/26 21:30	50.4	100.0	248.6	15.8	30.33	71.9	3.4	13.00	-39.9	0	0.3	50.6	58.4	0	1	0	0	0	79.4	69.1	0.0
2017 06/26 21:45	50.2	100.4	273.1	16.4	30.33	71.8	0.0	13.02	-40.0	0	0.4	50.6	58.2	0	1	0	0	0	78.5	68.7	0.0
2017 06/26 22:00	50.1	100.6	335.7	16.1	30.33	71.6	0.0	13.00	-39.9	0	0.6	50.6	57.7	0	1	0	0	0	77.9	68.5	0.0
2017 06/26 22:15	50.0	100.7	271.2	15.2	30.33	71.4	0.0	12.99	-40.0	0	0.7	50.6	57.5	0	1	0	0	0	77.4	68.3	0.0
2017 06/26 22:30	50.1	100.8	239.8	14.0	30.32	71.2	0.0	13.02	-40.0	0	0.6	50.6	57.5	0	1	0	0	0	76.7	68.0	0.0
2017 06/26 22:45	49.7	100.9	267.7	17.8	30.32	71.0	0.0	13.01	-40.0	0	0.6	50.6	57.3	0	1	0	0	0	76.2	67.7	0.0
2017 06/26 23:00	50.1	100.9	240.8	16.6	30.32	70.8	-0.3	13.01	-40.0	0	0.7	49.7	57.4	0	1	0	0	0	75.7	67.5	0.0
2017 06/26 23:15	49.9	101.0	254.4	15.4	30.31	70.6	0.0	13.00	-40.0	0	0.5	49.7	56.6	0	1	0	0	0	75.4	67.3	0.0
2017 06/26 23:30	49.6	101.0	240.1	16.0	30.31	70.4	0.0	13.02	-40.0	0	0.6	49.7	56.9	0	1	0	0	0	74.9	67.0	0.0
2017 06/26 23:45	49.5	101.1	210.3	15.4	30.31	70.0	0.0	13.00	-40.0	0	0.6	49.7	56.4	0	1	0	0	0	74.5	66.8	0.0
2017 06/27 00:00	49.7	101.3	246.2	18.9	30.30	69.7	-0.3	13.02	-40.0	0	0.6	49.7	55.9	0	1	0	0	0	74.0	66.6	0.0
2017 06/27 00:15	50.1	101.3	246.9	18.7	30.30	69.5	0.0	13.02	-40.0	0	0.5	49.7	55.5	0	1	0	0	0	73.8	66.5	0.0
2017 06/27 00:30	49.9	101.3	243.1	17.6	30.29	69.2	0.0	13.01	-40.0	0	0.4	49.7	55.3	0	1	0	0	0	73.2	66.3	0.0
2017 06/27 00:45	49.5	101.3	246.9	18.6	30.28	68.9	0.0	12.99	-40.0	0	0.7	48.8	55.1	0	1	0	0	0	72.9	66.0	0.0
2017 06/27 01:00	49.4	101.2	256.6	18.0	30.27	68.6	0.0	13.01	-39.9	0	0.6	48.8	55.0	0	1	0	0	0	72.5	65.8	0.0
2017 06/27 01:15	49.1	101.4	226.6	22.4	30.26	68.2	0.0	13.01	-40.0	0	0.1	48.8	55.3	0	1	0	0	0	72.2	65.7	0.0
2017 06/27 01:30	49.0	101.4	258.3	17.3	30.26	67.9	-0.3	12.99	-40.0	0	0.5	48.8	55.0	0	1	0	0	0	71.9	65.5	0.0
2017 06/27 01:45	48.9	101.4	273.4	14.6	30.26	67.6	-0.3	12.99	-40.0	0	0.6	48.8	54.7	0	1	0	0	0	71.5	65.3	0.0
2017 06/27 02:00	48.4	101.5	241.7	16.0	30.25	67.3	0.0	13.03	-40.0	0	0.7	47.9	54.3	0	1	0	0	0	71.1	65.0	0.0
2017 06/27 02:15	48.9	101.5	259.6	20.4	30.25	66.9	0.0	13.01	-39.9	0	0.7	47.9	54.0	0	1	0	0	0	71.0	64.9	0.0
2017 06/27 02:30	48.1	101.5	273.8	16.4	30.24	66.6	0.0	12.99	-40.0	0	0.6	47.9	54.0	0	1	0	0	0	70.5	64.7	0.0
2017 06/27 02:45	47.7	101.5	240.7	20.0	30.24	66.3	0.0	12.99	-40.0	0	0.5	47.9	53.7	0	1	0	0	0	70.3	64.6	0.0
2017 06/27 03:00	47.8	101.5	275.7	16.4	30.24	66.0	0.0	13.01	-40.0	0	0.6	47.9	53.9	0	1	0	0	0	70.0	64.4	0.0
2017 06/27 03:15	47.7	101.6	260.3	11.2	30.24	65.7	-0.3	13.01	-40.0	0	0.7	47.0	53.8	0	1	0	0	0	69.8	64.1	0.0
2017 06/27 03:30	47.2	101.6	273.8	13.8	30.23	65.4	0.0	12.99	-40.0	0	0.7	47.0	53.5	0	1	0	0	0	69.5	64.0	0.0
2017 06/27 03:45	47.4	101.6	261.8	17.9	30.23	65.1	-0.3	13.01	-40.0	0	0.6	47.0	53.8	0	1	0	0	0	69.2	63.8	0.0
2017 06/27 04:00	47.0	101.6	275.8	14.5	30.23	64.8	-0.3	12.99	-40.0	0	0.6	47.0	53.5	0	1	0	0	0	68.9	63.6	0.0
2017 06/27 04:15	47.1	101.6	276.6	9.8	30.24	64.5	0.0	13.01	-39.9	0	0.6	47.0	53.3	0	1	0	0	0	68.6	63.5	0.0
2017 06/27 04:30	46.8	101.6	234.0	12.9	30.23	64.2	0.0	13.01	-39.9	0	0.7	47.0	53.4	0	1	0	0	0	68.4	63.3	0.0
2017 06/27 04:45	46.8	101.7	270.5	10.2	30.23	63.9	0.0	12.99	-40.0	0	0.5	47.0	53.0	0	1	0	0	0	68.2	63.1	0.0
2017 06/27 05:00	47.2	101.6	231.9	6.9	30.23	63.6	4.1	13.02	-40.0	0	0.6	47.0	53.1	0	1	0	0	0	68.0	63.0	0.0
2017 06/27 05:15	47.0	101.6	260.7	9.7	30.23	63.3	57.7	13.01	-40.0	0	0.4	47.0	53.0	0	1	0	0	0	67.7	62.9	0.0
2017 06/27 05:30	46.3	101.7	258.9	13.8	30.22	63.1	216.8	13.00	-40.0	0	0.6	47.0	53.0	0	1	0	0	0	67.6	62.8	0.0
2017 06/27 05:45	46.5	101.6	265.5	14.2	30.21	62.8	493.2	13.01	-40.0	0	0.6	46.1	53.2	0	1	0	0	0	67.3	62.5	0.0
2017 06/27 06:00	46.6	101.7	250.7	15.8	30.21	62.4	681.5	13.03	-40.0	0	0.5	46.1	52.6	0	1	0	0	0	67.2	62.4	0.0
2017 06/27 06:15	45.7	101.5	242.7	17.6	30.20	62.2	743.0	13.00	-40.0	0	0.5	46.1	51.9	0	1	0	0	0	66.9	62.3	0.0
2017 06/27 06:30	46.1	101.6	244.2	17.8	30.20	61.9	773.0	13.01	-40.0	0	0.2	47.9	51.9	0	1	0	0	0	66.8	62.1	0.0
2017 06/27 06:45	45.6	101.6	249.4	17.8	30.20	61.7	794.0	13.01	-40.0	0	0.1	48.8	51.6	0	1	0	0	0	66.7	62.0	0.0
2017 06/27 07:00	46.0	101.7	247.2	16.5	30.20	61.4	813.0	12.99	-40.0	0	0.3	47.9	52.0	0	1	0	0	0	66.6	61.8	0.0
2017 06/27 07:15	46.2	101.6	246.1	14.0	30.19	61.2	816.0	13.01	-40.0	0	0.2	48.8	52.8	0	1	0	0	0	66.4	61.7	0.0
2017 06/27 07:30	45.9	101.6	234.2	14.8	30.19	61.0	831.0	12.99	-40.0	0	0.3	48.8	53.3	0	1	0	0	0	66.3	61.5	0.0
2017 06/27 07:45	45.9	101.6	246.4	15.8	30.19	60.8	820.0	13.00	-39.9	0	0.3	51.5	53.9	0	1	0	0	0	66.3	61.4	0.0
2017 06/27 08:00	46.7	101.6	252.3	15.5	30.19	60.6	822.0	13.01	-39.9	0	0.0	53.3	54.3	0	1	0	0	0	66.0	61.3	0.0
2017 06/27 08:15	47.5	101.7	246.5	11.9	30.19	60.5	821.0	12.99	-40.0	0	-0.2	54.2	54.3	0	1	0	0	0	66.0	61.3	0.0
2017 06/27 08:30	47.5	101.6	247.7	12.9	30.19	60.4	825.0	13.01	-40.0	0	0.2	54.2	55.3	0	1	0	0	0	66.0	61.3	0.0
2017 06/27 08:45	48.4	101.6	269.5	10.6	30.19	60.3	826.0	13.03	-40.0	0	-0.0	54.2	56.0	0	1	0	0	0	66.3	61.2	0.0
2017 06/27 09:00	48.7	101.6	258.5	10.7	30.19	60.1	827.0	13.00	-40.0	0	0.4	54.2	56.9	0	1	0	0	0	66.3	61.2	0.0
2017 06/27 09:15	49.2	101.6	255.8	10.5	30.19	60.1	828.0	12.99	-40.0	0	0.7	53.3	57.1	0	1	0	0	0	66.4	61.2	0.0
2017 06/27 09:30	49.4	100.7	246.5	12.4	30.19	60.1	830.0	13.00	-40.0	0	0.4	56.0	58.9	0	1	0	0	0	66.6	61.3	0.0
2017 06/27 09:45	50.9	96.6	253.5	10.8	30.19	60.0	832.0	13.00	-40.0	0	0.6	55.1	60.0	0	1	0	0	0	66.8	61.4	0.0
2017 06/27 10:00	51.6	95.3	249.0	10.9	30.19	59.9	834.0	13.00	-40.0	0	0.2	56.9	60.3	0	1	0	0	0	67.3	61.7	0.0
2017 06/27 10:15	52.5	93.4	262.6	8.0	30.19	59.9	837.0	13.01	-40.0	0	1.1	56.0	61.4	0	1	0	0	0	67.7	61.9	0.0
2017 06/27 10:30	53.2	89.0	247.7	8.2	30.18	60.0	838.0	12.99	-40.1	0	0.8	56.0	61.2	0	1	0	0	0	68.4	62.2	0.0
2017 06/27 10:45	53.9	83.7	285.0	7.7	30.19	60.0	840.0	13.01	-40.0	0	0.7	58.7	63.3	0	1	0	0	0	69.2	62.5	0.0
2017 06/27 11:00	55.1	70.7	243.4	8.5	30.19	60.1	841.0	13.02	-40.1	0	0.6	58.7	63.6	0	1	0	0	0	70.3	63.3	0.0
2017 06/27 11:15	57.5	68.3	269.0	9.1	30.19	60.1	842.0	13.01	-39.9	0	0.4	60.5	64.7	0	1	0	0	0	71.2	63.8	0.0
2017 06/27 11:30	57.5	55.5	265.2	10.4	30.19	60.1	843.0	13.00	-40.0	0	0.4	62.3	65.7	0	1	0	0	0	72.5	64.6	0.0
2017 06/27 11:45	58.9	59.5	299.3	4.8	30.19	60.2	844.0	13.01	-39.9	0	0.6	61.4	66.5	0	1	0	0	0	73.8	65.1	0.0
2017 06/27 12:00	58.2	58.0	249.7	9.1	30.19	60.4	844.0	12.99	-39.9	0	0.1	64.1	67.0	0	1	0	0	0	74.9	65.9	0.0
2017 06/27 12:15	58.6	56.9	332.2	10.7	30.19	60.4	845.0	13.01	-40.0	0	1.4	63.2	67.3	0	1	0	0	0	75.8	66.5	0.0
2017 06/27 12:30	59.4	57.8	289.0	9.9	30.19	60.5	846.0	13.01	-40.0	0	-0.2	63.2	68.1	0	1	0	0	0	76.8	66.8	0.0
2017 06/27 12:45	62.5	53.2	294.7	6.6	30.20	60.6	850.0	13.02	-40.0	0	0.5	64.1	68.5	0	1	0	0	0	77.5	67.7	0.0
2017 06/27 13:00	60.5	60.7	306.9	9.4	30.20	60.6	853.0	13.01	-40.0	0	0.8	65.9	69.2	0	1	0	0	0	78.3	68.4	0.0
2017 06/27 13:15	61.7	59.1	240.8	11.8	30.20	60.8	871.0	12.99	-40.0	0	0.4	65.9	70.2	0	1	0	0	0	78.9	68.7	0.0
2017 06/27 13:30	60.3	65.1	266.7	13.5	30.20	60.8	839.0	13.00	-39.9	0	0.5	65.9	70.4	0	1	0	0	0	79.3	68.9	0.0
2017 06/27 13:45	60.6	63.9	255.1	12.9	30.20	60.9	835.0	12.99	-40.0	0	0.5	65.9	69.5	0	1	0	0	0	80.0	69.1	0.0
2017 06/27 14:00	61.6	60.4	268.4	9.4	30.20	61.0	864.0	12.99	-39.9	0	0.6	65.9	70.1	0	1	0	0	0	80.4	69.3	0.0
2017 06/27 14:15	63.1	54.6	255.6	13.5	30.20	61.1	847.0	12.99	-40.0	0	0.4	65.0	69.5	0	1	0	0	0	80.7	69.4	0.0
2017 06/27 14:30	65.0	47.1	273.9	7.1	30.20	61.2	851.0	13.01	-40.0	0	1.1	65.0	70.1	0	1	0	0	0	80.9	69.1	0.0
2017 06/27 14:45	63.3	47.1	319.9	14.9	30.20	61.3	841.0	12.99	-40.0	0	0.2	65.9	71.1	0	1	0	0	0	81.0	68.9	0.0
2017 06/27 15:00	64.5	47.0	222.3	8.5	30.20	61.4	860.0	13.01	-40.1	0	0.6	65.9	69.5	0	1	0	0	0	81.2	68.6	0.0
2017 06/27 15:15	63.7	49.6	301.3	14.5	30.20	61.6	859.0	13.00	-40.0	0	0.9	65.0	70.6	0	1	0	0	0	81.5	68.6	0.0
2017 06/27 15:30	64.0	42.7	217.6	10.9	30.20	61.7	858.0	12.99	-40.0	0	0.6	65.0	70.5	0	1	0	0	0	81.6	68.4	0.0
2017 06/27 15:45	64.3	43.3	294.7	16.2	30.20	61.8	860.0	13.01	-40.0	0	-0.1	65.0	70.6	0	1	0	0	0	81.8	68.2	0.0
2017 06/27 16:00	63.3	44.2	278.4	13.9	30.20	62.0	861.0	12.99	-40.1	0	1.2	65.9	70.6	0	1	0	0	0	82.0	68.1	0.0
2017 06/27 16:15	63.2	43.4	259.8	11.1	30.20	62.2	863.0	13.03	-40.0	0	0.3	65.0	71.0	0	1	0	0	0	82.1	68.0	0.0
2017 06/27 16:30	63.8	44.6	295.8	11.3	30.20	62.3	866.0	12.99	-40.0	0	-0.4	64.1	70.1	0	1	0	0	0	82.5	67.8	0.0
2017 06/27 16:45	62.0	47.2	297.8	13.3	30.20	62.5	869.0	13.01	-40.0	0	0.5	64.1	70.6	0	1	0	0	0	82.7	67.7	0.0
2017 06/27 17:00	62.2	46.3	291.2	12.0	30.20	62.7	872.0	13.02	-40.0	0	0.3	64.1	69.9	0	1	0	0	0	83.0	67.6	0.0
2017 06/27 17:15	60.5	41.5	272.4	18.7	30.20	63.1	923.0	13.01	-40.0	0	0.4	63.2	69.6	0	1	0	0	0	83.4	67.6	0.0
2017 06/27 17:30	60.3	43.1	264.0	12.7	30.20	63.3	955.0	13.01	-40.0	0	0.3	64.1	69.6	0	1	0	0	0	83.6	67.4	0.0
2017 06/27 17:45	62.5	40.2	339.4	10.0	30.20	63.5	960.0	13.01	-39.9	0	0.4	63.2	70.2	0	1	0	0	0	83.6	67.3	0.0
2017 06/27 18:00	60.1	42.2	243.1	17.6	30.20	63.8	953.0	13.03	-40.0	0	0.0	62.3	69.5	0	1	0	0	0	83.5	67.3	0.0
2017 06/27 18:15	60.3	45.0	265.8	12.5	30.21	64.1	938.0	13.01	-40.0	0	-0.0	60.5	67.3	0	1	0	0	0	83.5	67.3	0.0
2017 06/27 18:30	58.4	53.5	34.6	10.9	30.21	64.3	878.0	13.01	-39.9	0	0.2	59.6	66.1	0	1	0	0	0	83.3	67.2	0.0
2017 06/27 18:45	57.7	58.9	314.8	10.9	30.21	64.5	858.0	12.99	-40.0	0	0.3	58.7	67.4	0	1	0	0	0	82.7	66.9	0.0
2017 06/27 19:00	57.6	52.9	300.7	14.2	30.21	64.8	851.0	12.99	-39.9	0	0.4	57.8	68.3	0	1	0	0	0	82.2	66.7	0.0
2017 06/27 19:15	56.3	60.9	331.2	12.8	30.21	65.0	944.0	12.99	-40.1	0	0.0	57.8	67.0	0	1	0	0	0	81.8	66.5	0.0
2017 06/27 19:30	55.7	67.8	276.4	14.2	30.21	65.2	960.0	13.01	-40.0	0	0.1	56.0	62.2	0	1	0	0	0	81.0	66.3	0.0
2017 06/27 19:45	54.4	68.8	270.5	10.8	30.22	65.5	959.0	12.99	-40.1	0	0.2	55.1	61.0	0	1	0	0	0	80.1	66.0	0.0
2017 06/27 20:00	52.5	73.9	258.6	9.9	30.21	65.7	956.0	13.01	-40.0	0	0.2	53.3	59.5	0	1	0	0	0	79.3	65.6	0.0
2017 06/27 20:15	51.7	78.6	238.3	9.1	30.22	65.9	951.0	12.99	-40.0	0	0.3	51.5	58.7	0	1	0	0	0	78.9	65.5	0.0
2017 06/27 20:30	50.0	82.1	291.0	8.3	30.22	66.1	939.0	13.01	-40.0	0	0.2	50.6	57.7	0	1	0	0	0	78.2	65.3	0.0
2017 06/27 20:45	48.9	82.9	253.7	15.4	30.21	66.2	906.0	13.00	-40.0	0	0.4	49.7	56.7	0	1	0	0	0	77.4	64.9	0.0
2017 06/27 21:00	47.5	90.9	281.5	14.5	30.21	66.3	515.9	13.01	-40.0	0	0.5	47.9	55.7	0	1	0	0	0	76.5	64.6	0.0
2017 06/27 21:15	46.7	96.1	256.0	12.1	30.21	66.5	239.1	13.00	-40.1	0	0.6	47.0	54.7	0	1	0	0	0	75.8	64.5	0.0
2017 06/27 21:30	46.2	99.4	237.4	12.2	30.22	66.5	25.4	13.02	-40.0	0	0.6	46.1	54.2	0	1	0	0	0	74.8	64.1	0.0
2017 06/27 21:45	46.1	99.9	280.2	16.0	30.22	66.5	2.7	13.02	-40.0	0	0.6	46.1	53.7	0	1	0	0	0	73.9	63.8	0.0
2017 06/27 22:00	45.6	100.2	257.1	12.0	30.23	66.5	0.0	13.02	-40.0	0	0.7	45.2	53.4	0	1	0	0	0	73.1	63.6	0.0
2017 06/27 22:15	45.2	100.4	271.2	14.6	30.23	66.5	0.0	13.00	-40.1	0	0.6	45.2	53.0	0	1	0	0	0	72.6	63.3	0.0
2017 06/27 22:30	44.9	100.5	242.5	10.9	30.23	66.3	0.0	13.02	-40.0	0	0.5	45.2	52.5	0	1	0	0	0	71.9	63.0	0.0
2017 06/27 22:45	44.5	100.6	288.1	10.8	30.23	66.3	0.0	13.03	-40.0	0	0.4	45.2	52.1	0	1	0	0	0	71.3	62.8	0.0
2017 06/27 23:00	44.1	100.7	309.4	9.5	30.23	66.1	0.0	13.01	-40.0	0	0.6	44.3	51.6	0	1	0	0	0	70.8	62.5	0.0
2017 06/27 23:15	43.9	100.9	290.0	9.1	30.23	65.9	-0.3	13.01	-39.9	0	0.4	44.3	51.7	0	1	0	0	0	70.3	62.3	0.0
2017 06/27 23:30	43.4	100.8	279.4	11.1	30.23	65.8	0.0	13.03	-40.0	0	0.6	43.4	50.8	0	1	0	0	0	69.9	62.1	0.0
2017 06/27 23:45	42.9	100.8	267.8	12.1	30.23	65.5	0.0	13.01	-40.0	0	0.5	43.4	51.1	0	1	0	0	0	69.3	61.8	0.0
2017 06/28 00:00	43.0	100.9	264.0	13.8	30.22	65.3	0.0	13.01	-40.1	0	0.5	42.5	50.4	0	1	0	0	0	68.7	61.5	0.0
2017 06/28 00:15	42.5	100.9	260.4	12.8	30.22	65.1	0.0	13.01	-40.0	0	0.6	41.6	49.6	0	1	0	0	0	68.3	61.4	0.0
2017 06/28 00:30	42.4	100.9	240.2	13.8	30.21	64.8	0.0	12.99	-40.0	0	0.8	40.7	49.2	0	1	0	0	0	67.7	61.1	0.0
2017 06/28 00:45	43.0	101.1	250.7	15.1	30.20	64.5	0.0	13.01	-40.0	0	0.8	40.7	46.6	0	1	0	0	0	67.2	60.7	0.0
2017 06/28 01:00	43.0	101.1	238.1	17.2	30.19	64.2	0.0	13.01	-39.9	0	0.4	41.6	46.9	0	1	0	0	0	66.6	60.5	0.0
2017 06/28 01:15	42.1	101.0	236.3	16.9	30.19	63.9	0.0	13.01	-39.9	0	0.5	41.6	46.9	0	1	0	0	0	66.3	60.3	0.0
2017 06/28 01:30	42.5	101.2	239.9	16.8	30.18	63.6	-0.3	12.99	-40.1	0	0.6	40.7	46.3	0	1	0	0	0	65.9	60.1	0.0
2017 06/28 01:45	42.1	100.9	245.4	18.7	30.18	63.3	0.0	12.99	-40.1	0	0.6	40.7	46.8	0	1	0	0	0	65.3	59.9	0.0
2017 06/28 02:00	42.4	101.2	266.6	18.1	30.17	63.0	0.0	13.01	-39.9	0	0.5	41.6	47.8	0	1	0	0	0	64.9	59.6	0.0
2017 06/28 02:15	41.8	101.2	268.7	18.8	30.16	62.6	-0.3	12.99	-40.0	0	0.8	40.7	47.4	0	1	0	0	0	64.6	59.5	0.0
2017 06/28 02:30	41.5	101.2	267.9	15.9	30.16	62.3	0.0	12.99	-40.0	0	0.6	40.7	47.2	0	1	0	0	0	64.2	59.3	0.0
2017 06/28 02:45	42.1	101.2	262.7	17.9	30.16	62.0	-0.3	13.01	-40.0	0	0.5	41.6	47.8	0	1	0	0	0	63.9	59.1	0.0
2017 06/28 03:00	41.1	101.2	268.2	18.0	30.15	61.6	-0.3	12.99	-40.0	0	0.5	41.6	47.7	0	1	0	0	0	63.6	58.8	0.0
2017 06/28 03:15	41.3	101.2	268.0	18.5	30.14	61.4	0.0	12.99	-40.0	0	0.5	41.6	47.8	0	1	0	0	0	63.3	58.7	0.0
2017 06/28 03:30	41.2	101.4	258.9	18.5	30.14	61.0	0.0	13.00	-39.9	0	0.6	40.7	47.7	0	1	0	0	0	63.1	58.5	0.0
2017 06/28 03:45	41.3	101.3	261.2	18.2	30.14	60.7	0.0	12.99	-40.0	0	0.5	41.6	47.6	0	1	0	0	0	63.1	58.3	0.0
2017 06/28 04:00	41.2	101.4	267.0	18.4	30.14	60.4	0.0	12.99	-40.0	0	0.7	40.7	47.5	0	1	0	0	0	62.7	58.2	0.0
2017 06/28 04:15	41.3	101.3	272.8	15.2	30.14	59.9	0.0	13.02	-40.0	0	0.5	40.7	47.6	0	1	0	0	0	62.3	58.0	0.0
2017 06/28 04:30	41.1	101.4	269.0	15.5	30.13	59.7	0.0	12.99	-40.0	0	0.6	40.7	47.2	0	1	0	0	0	62.2	57.7	0.0
2017 06/28 04:45	41.1	101.4	258.6	13.7	30.13	59.3	2.0	12.99	-40.0	0	0.4	40.7	46.7	0	1	0	0	0	62.0	57.6	0.0
2017 06/28 05:00	40.1	101.4	248.0	14.5	30.12	59.1	13.6	13.01	-40.0	0	0.5	40.7	46.6	0	1	0	0	0	61.8	57.4	0.0
2017 06/28 05:15	40.4	101.4	269.3	16.9	30.12	58.6	83.1	12.99	-40.0	0	0.5	40.7	46.9	0	1	0	0	0	61.5	57.3	0.0
2017 06/28 05:30	40.5	101.4	262.0	16.2	30.12	58.4	277.2	12.99	-40.0	0	0.4	40.7	47.6	0	1	0	0	0	61.4	57.2	0.0
2017 06/28 05:45	40.1	101.4	254.8	14.0	30.12	58.0	446.5	12.99	-40.0	0	0.6	39.8	47.1	0	1	0	0	0	61.1	56.9	0.0
2017 06/28 06:00	39.8	101.4	261.9	16.7	30.11	57.6	611.4	12.99	-40.1	0	0.5	39.8	46.8	0	1	0	0	0	60.9	56.7	0.0
2017 06/28 06:15	40.1	101.4	239.9	13.8	30.11	57.4	648.7	13.00	-40.0	0	0.6	39.8	46.9	0	1	0	0	0	60.9	56.7	0.0
2017 06/28 06:30	40.0	101.4	260.4	15.8	30.11	56.9	759.0	13.00	-39.9	0	0.6	39.8	47.0	0	1	0	0	0	60.7	56.5	0.0
2017 06/28 06:45	40.1	101.4	279.4	18.5	30.11	56.7	713.0	13.01	-40.0	0	0.5	40.7	46.9	0	1	0	0	0	60.4	56.4	0.0
2017 06/28 07:00	40.0	101.3	273.9	14.6	30.11	56.5	785.0	13.00	-40.0	0	0.7	40.7	47.2	0	1	0	0	0	60.2	56.1	0.0
2017 06/28 07:15	39.9	101.4	263.3	17.5	30.11	56.1	803.0	13.01	-39.9	0	0.4	41.6	47.5	0	1	0	0	0	60.0	56.1	0.0
2017 06/28 07:30	40.0	101.3	263.9	15.5	30.10	55.9	839.0	13.00	-40.0	0	0.4	43.4	47.9	0	1	0	0	0	60.0	56.0	0.0
2017 06/28 07:45	38.8	101.4	263.3	18.2	30.10	55.6	841.0	13.01	-40.0	0	0.4	42.5	48.4	0	1	0	0	0	59.9	55.9	0.0
2017 06/28 08:00	40.9	101.3	269.8	16.5	30.10	55.4	828.0	13.00	-40.0	0	0.6	44.3	48.8	0	1	0	0	0	60.1	55.8	0.0
2017 06/28 08:15	40.4	101.3	262.9	16.0	30.10	55.2	814.0	13.00	-40.1	0	0.4	45.2	49.3	0	1	0	0	0	60.0	55.7	0.0
2017 06/28 08:30	40.4	101.4	275.2	14.6	30.10	55.0	819.0	12.99	-39.9	0	0.0	45.2	50.2	0	1	0	0	0	60.1	55.7	0.0
2017 06/28 08:45	40.9	101.4	254.8	14.7	30.10	54.8	820.0	12.99	-39.9	0	-0.3	47.0	50.5	0	1	0	0	0	60.2	55.6	0.0
2017 06/28 09:00	41.6	101.2	264.6	15.9	30.10	54.8	822.0	13.02	-40.0	0	0.7	47.9	51.4	0	1	0	0	0	60.2	55.5	0.0
2017 06/28 09:15	42.6	100.7	260.2	10.9	30.10	54.6	826.0	13.02	-40.0	0	0.3	47.9	52.2	0	1	0	0	0	60.3	55.5	0.0
2017 06/28 09:30	43.3	97.4	270.0	9.8	30.10	54.5	828.0	12.99	-39.9	0	0.1	48.8	52.9	0	1	0	0	0	60.5	55.6	0.0
2017 06/28 09:45	44.3	92.5	266.9	12.6	30.10	54.4	831.0	12.99	-40.0	0	0.6	49.7	53.7	0	1	0	0	0	60.7	55.7	0.0
2017 06/28 10:00	45.5	91.9	282.9	10.0	30.11	54.4	833.0	12.99	-40.0	0	0.3	49.7	54.8	0	1	0	0	0	61.0	55.9	0.0
2017 06/28 10:15	46.5	90.4	243.5	8.1	30.11	54.4	835.0	13.01	-40.0	0	0.4	50.6	56.0	0	1	0	0	0	61.3	56.0	0.0
2017 06/28 10:30	47.7	89.0	319.8	9.4	30.12	54.4	837.0	12.99	-39.9	0	0.7	52.4	56.7	0	1	0	0	0	61.9	56.4	0.0
2017 06/28 10:45	48.8	76.9	308.1	10.5	30.12	54.4	839.0	13.02	-40.0	0	0.6	52.4	57.1	0	1	0	0	0	62.7	56.8	0.0
2017 06/28 11:00	48.7	73.4	251.6	10.9	30.12	54.4	840.0	12.99	-40.0	0	-0.2	54.2	58.2	0	1	0	0	0	63.8	57.7	0.0
2017 06/28 11:15	50.8	74.1	321.9	6.0	30.12	54.4	841.0	13.03	-39.9	0	1.4	53.3	58.7	0	1	0	0	0	64.5	58.4	0.0
2017 06/28 11:30	50.8	71.9	324.9	9.3	30.13	54.4	842.0	13.01	-39.9	0	0.6	56.9	60.2	0	1	0	0	0	65.8	59.4	0.0
2017 06/28 11:45	51.9	71.8	255.1	15.2	30.13	54.4	842.0	13.01	-40.0	0	1.1	57.8	61.3	0	1	0	0	0	67.0	60.3	0.0
2017 06/28 12:00	52.3	69.5	298.9	8.1	30.13	54.4	843.0	13.02	-39.9	0	-0.1	57.8	62.2	0	1	0	0	0	68.4	61.2	0.0

Where:
  YYYY   = Year
  MM/DD  = Month / Date
  hh:mm  = Hour  : Minute
  Temp   = Temperature outside       (F)              @ 5720', on tower
  Humid  = Humidity    outside       (%)              @ 5720'
  W_dir  = Wind direction / Azimuth  (degrees)        @ 5720'
  W_spd  = Wind speed                (miles per hour) @ 5720'
  Barom  = Sea-level air pressure    (inches of mercury)
  T_int  = Temperature (internal)    (F)              - inside barometer case
  Light  = Outside light level       (no units)       - 0 = dark, 1000 = bright
  Power  = Power supply rail         (Volts)
  Temp2  = Temperature (back-up)     (F)
  P2     = datalogger counter channel "P2" (to be static burst counter)
  Snow   = Snow depth,  mid-mountain (inches)         @ 5010'
  T_mid  = Temperature, mid-mountain (F)              @ 5010'
  T_base = Temperature @ south lodge (F)              @ 4700'
  Precip = Precipitation total       (inches)         @ 4800' (near US20 mp81)

Notes:
1999 07/17
   Barometric data in this listing should have an additional
   temperature correction applied to it, based on the sensor's
   internal temperature:

   P_corrected = Barom + (-0.0223 * T_int) + 0.8887  (inches Hg)

2004 07/03
   The air pressure correction equation has not been checked
   in a long time.  The air pressure reading is best used only
   to observe general trends.

2006 11/18
   Added precipitation gauge.  Depth is precipitation equivalent in water,
   for the water year (beginning October 1st) at the Hogg Pass
   SnoTel station.

2011 03/11
  Fixed data column title bug from adding "T_base" after "T_mid".
  If you notice a bug like this it will get fixed a whole lot sooner
  if you tell me about it.